GW2233 Weather Reports


time (UTC)temp
F
wind
direction
speed
knots
gust
knots
rain 1hr
in
rain 24hr
in
rain mn
in
humidity
%
barometer
mb
20260507035403 50 258 0.0 1.7 0.00 0.00 0.00 98 1005.1
20260507035306 50 264 0.0 1.7 0.00 0.00 0.00 98 1005.0
20260507035203 50 274 0.0 1.7 0.00 0.00 0.00 98 1005.1
20260507035103 49 289 0.0 1.7 0.00 0.00 0.00 98 1005.1
20260507035004 49 299 0.0 1.7 0.00 0.00 0.00 98 1005.1
20260507034903 49 303 0.0 1.7 0.00 0.00 0.00 98 1005.1
20260507034803 49 307 0.0 1.7 0.00 0.00 0.00 98 1005.1
20260507034704 49 308 0.0 1.7 0.00 0.00 0.00 98 1005.0
20260507034603 49 309 0.0 1.7 0.00 0.00 0.00 98 1005.2
20260507034503 49 318 0.0 1.7 0.00 0.00 0.00 98 1005.3
20260507034404 49 332 0.0 1.7 0.00 0.00 0.00 98 1005.2
20260507034303 49 336 0.0 1.7 0.00 0.00 0.00 98 1005.1
20260507034205 49 336 0.0 1.7 0.00 0.00 0.00 98 1005.1
20260507034104 49 336 0.0 1.7 0.00 0.00 0.00 98 1005.3
20260507034003 49 335 0.0 1.7 0.00 0.00 0.00 98 1005.2
20260507033903 49 335 0.0 0.9 0.00 0.00 0.00 98 1005.1
20260507033817 49 335 0.0 0.9 0.00 0.00 0.00 98 1005.1
20260507033803 49 335 0.0 0.9 0.00 0.00 0.00 98 1005.2
20260507033704 49 0 0.0 0.9 0.00 0.00 0.00 98 1005.2
20260507033619 49 0 0.0 0.9 0.00 0.00 0.00 98 1005.2
20260507033504 49 0 0.0 1.7 0.00 0.00 0.00 98 1005.3
20260507033303 49 335 0.0 1.7 0.00 0.00 0.00 98 1005.4
20260507033217 49 335 0.0 1.7 0.00 0.00 0.00 98 1005.4
20260507033203 49 335 0.0 1.7 0.00 0.00 0.00 98 1005.2
20260507033103 49 332 0.0 1.7 0.00 0.00 0.00 98 1005.4
20260507032917 49 323 0.9 1.7 0.00 0.00 0.00 98 1005.3
20260507032904 49 322 0.9 1.7 0.00 0.00 0.00 98 1005.3
20260507032819 49 321 0.9 1.7 0.00 0.00 0.00 98 1005.3
20260507032805 49 320 0.9 1.7 0.00 0.00 0.00 98 1005.3
20260507032504 49 317 0.9 1.7 0.00 0.00 0.00 98 1005.2
20260507032403 49 317 0.9 1.7 0.00 0.00 0.00 98 1005.3
20260507032306 49 319 0.9 1.7 0.00 0.00 0.00 98 1005.2
20260507032204 49 317 0.9 1.7 0.00 0.00 0.00 99 1005.2
20260507032103 49 316 0.9 1.7 0.00 0.00 0.00 99 1005.2
20260507032004 49 320 0.9 1.7 0.00 0.00 0.00 99 1005.3
20260507031903 49 332 0.9 1.7 0.00 0.00 0.00 99 1005.2
20260507031803 49 344 0.0 1.7 0.00 0.00 0.00 98 1005.2
20260507031706 49 29 0.0 1.7 0.00 0.00 0.00 99 1005.1
20260507031603 48 62 0.0 1.7 0.00 0.00 0.00 98 1005.2
20260507031521 48 74 0.0 1.7 0.00 0.00 0.00 98 1005.2
20260507031503 48 74 0.0 1.7 0.00 0.00 0.00 98 1005.0
20260507031403 48 77 0.0 1.7 0.00 0.00 0.00 98 1005.2
20260507031319 48 80 0.0 1.7 0.00 0.00 0.00 98 1005.2
20260507031203 48 82 0.0 1.7 0.00 0.00 0.00 98 1005.0
20260507031120 48 84 0.0 1.7 0.00 0.00 0.00 98 1005.0
20260507031003 48 91 0.0 1.7 0.00 0.00 0.00 98 1004.9
20260507030921 48 94 0.0 1.7 0.00 0.00 0.00 98 1004.9
20260507030819 48 100 0.0 1.7 0.00 0.00 0.00 98 1005.0
20260507030804 48 102 0.0 1.7 0.00 0.00 0.00 98 1005.0
20260507030504 48 131 0.9 1.7 0.00 0.00 0.00 98 1004.9
20260507030404 48 138 0.9 1.7 0.00 0.00 0.00 98 1005.1
20260507030304 48 145 0.0 1.7 0.00 0.00 0.00 98 1005.2
20260507030205 48 148 0.0 1.7 0.00 0.00 0.00 98 1005.2
20260507030104 48 148 0.0 1.7 0.00 0.00 0.00 98 1005.3
20260507025903 48 152 0.0 1.7 0.00 0.00 0.00 98 1005.2
20260507025804 48 157 0.0 1.7 0.00 0.00 0.00 98 1005.2
20260507025704 48 169 0.0 1.7 0.00 0.00 0.00 98 1005.3
20260507025604 48 172 0.0 1.7 0.00 0.00 0.00 98 1005.5
20260507025503 48 0 0.0 0.0 0.00 0.00 0.00 98 1005.1
20260507025404 48 0 0.0 0.0 0.00 0.00 0.00 98 1005.2
20260507025306 48 0 0.0 0.0 0.00 0.00 0.00 98 1005.1
20260507025203 48 0 0.0 0.0 0.00 0.00 0.00 98 1005.4
20260507025104 48 0 0.0 0.0 0.00 0.00 0.00 99 1005.5
20260507025004 48 0 0.0 0.0 0.00 0.00 0.00 99 1005.3
20260507024904 48 0 0.0 0.0 0.00 0.00 0.00 99 1005.3
20260507024803 48 0 0.0 0.0 0.00 0.00 0.00 99 1005.3
20260507024616 48 0 0.0 0.0 0.00 0.00 0.00 99 1005.3
20260507024604 48 0 0.0 0.0 0.00 0.00 0.00 99 1005.1
20260507024504 48 0 0.0 0.0 0.00 0.00 0.00 99 1005.2
20260507024304 48 0 0.0 0.0 0.00 0.00 0.00 99 1005.2
20260507024204 48 0 0.0 0.0 0.00 0.00 0.00 99 1005.2
20260507024104 48 0 0.0 0.0 0.00 0.00 0.00 99 1005.2
20260507024003 48 0 0.0 0.0 0.00 0.00 0.00 99 1005.2
20260507023904 48 0 0.0 0.0 0.00 0.00 0.00 99 1005.3
20260507023716 48 0 0.0 0.0 0.00 0.00 0.00 99 1005.2
20260507023703 48 0 0.0 0.0 0.00 0.00 0.00 99 1005.3
20260507023603 48 0 0.0 0.0 0.00 0.00 0.00 99 1005.2
20260507023517 48 0 0.0 0.0 0.00 0.00 0.00 99 1005.2
20260507023403 48 0 0.0 0.0 0.00 0.00 0.00 99 1005.2
20260507023203 48 0 0.0 0.0 0.00 0.00 0.00 99 1005.1
20260507023103 48 0 0.0 0.0 0.00 0.00 0.00 99 1005.2
20260507023018 48 0 0.0 0.0 0.00 0.00 0.00 99 1005.2
20260507023004 48 0 0.0 0.0 0.00 0.00 0.00 99 1005.3
20260507022904 48 0 0.0 0.0 0.00 0.00 0.00 99 1005.3
20260507022705 48 0 0.0 0.0 0.00 0.00 0.00 99 1005.1
20260507022604 48 0 0.0 0.0 0.00 0.00 0.00 99 1005.1
20260507022503 48 0 0.0 0.0 0.00 0.00 0.00 99 1005.3
20260507022404 48 0 0.0 0.0 0.00 0.00 0.00 98 1005.2
20260507022306 48 0 0.0 0.0 0.00 0.00 0.00 99 1005.1
20260507022204 48 0 0.0 0.0 0.00 0.00 0.00 98 1005.2
20260507022105 48 0 0.0 0.0 0.00 0.00 0.00 98 1005.1
20260507022004 48 0 0.0 0.0 0.00 0.00 0.00 98 1005.1
20260507021905 48 0 0.0 0.0 0.00 0.00 0.00 98 1005.2
20260507021803 48 0 0.0 0.0 0.00 0.00 0.00 98 1005.1
20260507021704 48 0 0.0 0.0 0.00 0.00 0.00 98 1005.1
20260507021604 48 0 0.0 0.0 0.00 0.00 0.00 98 1005.1
20260507021503 48 0 0.0 0.0 0.00 0.00 0.00 98 1005.3
20260507021404 48 0 0.0 0.0 0.00 0.00 0.00 99 1005.2
20260507021303 48 0 0.0 0.0 0.00 0.00 0.00 98 1005.2
20260507021205 48 0 0.0 0.0 0.00 0.00 0.00 99 1005.2
20260507021104 48 0 0.0 0.0 0.00 0.00 0.00 99 1005.4
20260507021004 48 0 0.0 0.0 0.00 0.00 0.00 99 1005.2
20260507020903 48 0 0.0 0.0 0.00 0.00 0.00 99 1005.2
20260507020803 48 0 0.0 0.0 0.00 0.00 0.00 98 1005.3
20260507020705 48 0 0.0 0.0 0.00 0.00 0.00 98 1005.1
20260507020603 47 0 0.0 0.0 0.00 0.00 0.00 98 1005.2
20260507020504 47 0 0.0 0.0 0.00 0.00 0.00 98 1005.3
20260507020403 47 0 0.0 0.0 0.00 0.00 0.00 98 1005.2
20260507020320 47 0 0.0 0.0 0.00 0.00 0.00 98 1005.2
20260507020304 47 0 0.0 0.0 0.00 0.00 0.00 98 1005.4
20260507020203 47 0 0.0 0.0 0.00 0.00 0.00 98 1005.3
20260507020004 47 0 0.0 0.0 0.00 0.00 0.00 98 1005.3
20260507015903 47 0 0.0 0.0 0.00 0.00 0.00 98 1005.3
20260507015803 47 0 0.0 0.0 0.00 0.00 0.00 98 1005.3
20260507015704 47 0 0.0 0.0 0.00 0.00 0.00 98 1005.2
20260507015604 47 0 0.0 0.0 0.00 0.00 0.00 98 1005.3
20260507015504 47 0 0.0 0.0 0.00 0.00 0.00 98 1005.2
20260507015404 47 0 0.0 0.0 0.00 0.00 0.00 98 1005.2
20260507015306 47 0 0.0 0.0 0.00 0.00 0.00 98 1005.4
20260507015119 47 0 0.0 0.0 0.00 0.00 0.00 98 1005.3
20260507015104 47 0 0.0 0.0 0.00 0.00 0.00 98 1005.4
20260507015004 47 0 0.0 0.0 0.00 0.00 0.00 98 1005.4
20260507014819 47 0 0.0 0.0 0.00 0.00 0.00 98 1005.1
20260507014803 47 0 0.0 0.0 0.00 0.00 0.00 98 1005.4
20260507014705 47 0 0.0 0.0 0.00 0.00 0.00 98 1005.4
20260507014503 47 0 0.0 0.0 0.00 0.00 0.00 98 1005.3
20260507014403 47 0 0.0 0.0 0.00 0.00 0.00 98 1005.6
20260507014304 47 0 0.0 0.0 0.00 0.00 0.00 98 1005.4
20260507014205 47 0 0.0 0.0 0.00 0.00 0.00 98 1005.6
20260507014104 47 0 0.0 0.0 0.00 0.00 0.00 98 1005.4
20260507014004 47 0 0.0 0.0 0.00 0.00 0.00 98 1005.4
20260507013903 47 0 0.0 0.0 0.00 0.00 0.00 98 1005.5
20260507013803 47 0 0.0 0.0 0.00 0.00 0.00 98 1005.3
20260507013719 47 0 0.0 0.0 0.00 0.00 0.00 98 1005.3
20260507013703 47 0 0.0 0.0 0.00 0.00 0.00 98 1005.6
20260507013604 46 0 0.0 0.0 0.00 0.00 0.00 98 1005.4
20260507013404 46 0 0.0 0.0 0.00 0.00 0.00 98 1005.4
20260507013303 46 0 0.0 0.0 0.00 0.00 0.00 98 1005.4
20260507013203 46 0 0.0 0.0 0.00 0.00 0.00 98 1005.4
20260507013103 46 0 0.0 0.0 0.00 0.00 0.00 98 1005.5
20260507013005 46 0 0.0 0.9 0.00 0.00 0.00 98 1005.3
20260507012904 46 0 0.0 0.9 0.00 0.00 0.00 98 1005.4
20260507012805 46 59 0.0 0.9 0.00 0.00 0.00 98 1005.5
20260507012703 46 47 0.0 0.9 0.00 0.00 0.00 98 1005.3
20260507012603 46 37 0.0 0.9 0.00 0.00 0.00 98 1005.5
20260507012503 46 43 0.0 0.9 0.00 0.00 0.00 98 1005.5
20260507012404 46 51 0.0 0.9 0.00 0.00 0.00 98 1005.3
20260507012306 46 55 0.0 1.7 0.00 0.00 0.00 98 1005.3
20260507012204 46 67 0.0 1.7 0.00 0.00 0.00 97 1005.4
20260507012104 46 74 0.0 1.7 0.00 0.00 0.00 97 1005.3
20260507012004 46 75 0.0 1.7 0.00 0.00 0.00 97 1005.2
20260507011903 46 76 0.0 1.7 0.00 0.00 0.00 97 1005.3
20260507011803 46 80 0.0 1.7 0.00 0.00 0.00 97 1005.4
20260507011704 46 88 0.0 1.7 0.00 0.00 0.00 98 1005.4
20260507011618 47 94 0.0 1.7 0.00 0.00 0.00 98 1005.4
20260507011604 47 96 0.0 1.7 0.00 0.00 0.00 98 1005.3
20260507011503 47 98 0.0 1.7 0.00 0.00 0.00 98 1005.3
20260507011419 47 99 0.0 1.7 0.00 0.00 0.00 98 1005.3
20260507011303 47 98 0.0 1.7 0.00 0.00 0.00 98 1005.4
20260507011103 47 92 0.0 0.9 0.00 0.00 0.00 98 1005.4
20260507010903 47 101 0.0 0.9 0.00 0.00 0.00 98 1005.6
20260507010803 47 101 0.0 0.9 0.00 0.00 0.00 98 1005.6
20260507010705 47 101 0.0 0.9 0.00 0.00 0.00 98 1005.5
20260507010603 47 101 0.0 0.9 0.00 0.00 0.00 98 1005.5
20260507010503 47 104 0.0 0.9 0.00 0.00 0.00 98 1005.4
20260507010305 47 121 0.0 1.7 0.00 0.00 0.00 98 1005.4
20260507010203 47 127 0.0 1.7 0.00 0.00 0.00 98 1005.5
20260507010104 47 130 0.0 1.7 0.00 0.00 0.00 98 1005.5
20260507010005 47 126 0.0 1.7 0.00 0.00 0.00 98 1005.4
20260507005903 47 125 0.9 1.7 0.00 0.00 0.00 97 1005.5
20260507005803 47 125 0.9 1.7 0.00 0.00 0.00 97 1005.5
20260507005704 47 124 0.9 1.7 0.00 0.00 0.00 97 1005.5
20260507005605 47 124 0.9 1.7 0.00 0.00 0.00 97 1005.3
20260507005503 47 124 0.9 1.7 0.00 0.00 0.00 97 1005.5
20260507005403 47 123 0.9 1.7 0.00 0.00 0.00 97 1005.6
20260507005306 47 121 0.9 1.7 0.00 0.00 0.00 97 1005.3
20260507005205 47 120 0.9 1.7 0.00 0.00 0.00 97 1005.4
20260507005119 47 119 0.9 1.7 0.00 0.00 0.00 97 1005.4
20260507005103 47 119 0.9 1.7 0.00 0.00 0.00 97 1005.3
20260507005005 47 121 0.0 0.9 0.00 0.00 0.00 97 1005.4
20260507004803 47 121 0.0 0.9 0.00 0.00 0.00 97 1005.4
20260507004703 47 121 0.0 0.9 0.00 0.00 0.00 97 1005.4
20260507004604 47 120 0.0 0.9 0.00 0.00 0.00 97 1005.4
20260507004518 47 120 0.0 0.9 0.00 0.00 0.00 97 1005.4
20260507004504 47 120 0.0 0.9 0.00 0.00 0.00 97 1005.2
20260507004404 47 120 0.0 0.9 0.00 0.00 0.00 97 1005.5
20260507004204 47 121 0.0 0.9 0.00 0.00 0.00 97 1005.6
20260507004104 47 121 0.0 0.9 0.00 0.00 0.00 97 1005.6
20260507004003 47 0 0.0 0.9 0.00 0.00 0.00 97 1005.4
20260507003903 47 0 0.0 0.9 0.00 0.00 0.00 97 1005.5
20260507003803 47 0 0.0 0.0 0.00 0.00 0.00 97 1005.4
20260507003705 47 0 0.0 0.0 0.00 0.00 0.00 97 1005.4
20260507003604 47 0 0.0 0.0 0.00 0.00 0.00 97 1005.3
20260507003503 47 0 0.0 0.0 0.00 0.00 0.00 97 1005.8
20260507003403 47 0 0.0 0.0 0.00 0.00 0.00 97 1005.5
20260507003303 47 0 0.0 0.0 0.00 0.00 0.00 97 1005.4
20260507003204 47 0 0.0 0.9 0.00 0.00 0.00 97 1005.5
20260507003103 47 0 0.0 0.9 0.00 0.00 0.00 97 1005.5
20260507003003 47 0 0.0 0.9 0.00 0.00 0.00 97 1005.5
20260507002903 47 120 0.0 0.9 0.00 0.00 0.00 96 1005.8
20260507002818 47 120 0.0 0.9 0.00 0.00 0.00 96 1005.8
20260507002803 47 120 0.0 0.9 0.00 0.00 0.00 96 1005.4
20260507002504 47 120 0.0 0.9 0.00 0.00 0.00 96 1005.6
20260507002417 47 120 0.0 0.9 0.00 0.00 0.00 96 1005.6
20260507002403 47 120 0.0 0.9 0.00 0.00 0.00 96 1005.8
20260507002306 47 120 0.0 0.9 0.00 0.00 0.00 96 1005.5
20260507002104 47 120 0.0 0.9 0.00 0.00 0.00 96 1005.5
20260507002019 47 120 0.0 0.9 0.00 0.00 0.00 96 1005.5
20260507002003 47 120 0.0 0.9 0.00 0.00 0.00 96 1005.8
20260507001904 47 120 0.0 0.9 0.00 0.00 0.00 96 1005.6
20260507001820 47 0 0.0 0.9 0.00 0.00 0.00 96 1005.6
20260507001703 47 0 0.0 0.0 0.00 0.00 0.00 96 1005.6
20260507001420 47 0 0.0 0.0 0.00 0.00 0.00 96 1005.6
20260507001404 47 0 0.0 0.0 0.00 0.00 0.00 96 1005.8
20260507001303 48 0 0.0 0.0 0.00 0.00 0.00 96 1005.4
20260507001104 48 0 0.0 0.0 0.00 0.00 0.00 96 1005.8
20260507001003 48 0 0.0 0.0 0.00 0.00 0.00 96 1005.6
20260507000919 48 0 0.0 0.0 0.00 0.00 0.00 96 1005.6
20260507000903 48 0 0.0 0.0 0.00 0.00 0.00 96 1005.5
20260507000803 48 0 0.0 0.0 0.00 0.00 0.00 96 1005.5
20260507000604 48 0 0.0 0.0 0.00 0.00 0.00 97 1005.5
20260507000518 48 0 0.0 0.0 0.00 0.00 0.00 97 1005.5
20260507000503 48 0 0.0 0.0 0.00 0.00 0.00 97 1005.8
20260507000405 48 0 0.0 0.0 0.00 0.00 0.00 97 1005.8
20260507000019 48 0 0.0 0.0 0.00 0.00 0.00 97 1005.5
20260507000003 48 0 0.0 0.0 0.00 0.00 0.00 97 1005.6
20260506235904 48 0 0.0 0.0 0.00 0.00 0.00 97 1005.6
20260506235705 49 0 0.0 0.9 0.00 0.00 0.00 97 1005.5
20260506235617 49 0 0.0 0.9 0.00 0.00 0.00 97 1005.5
20260506235603 49 120 0.0 0.9 0.00 0.00 0.00 97 1005.6
20260506235503 49 120 0.0 0.9 0.00 0.00 0.00 97 1005.5
20260506235317 49 120 0.0 0.9 0.00 0.00 0.00 97 1005.5
20260506235306 49 120 0.0 0.9 0.00 0.00 0.00 97 1005.8
20260506235203 49 120 0.0 0.9 0.00 0.00 0.00 97 1005.6
20260506235017 49 120 0.0 1.7 0.00 0.00 0.00 97 1005.6
20260506234904 49 120 0.9 1.7 0.00 0.00 0.00 97 1005.9
20260506234804 49 120 0.9 1.7 0.00 0.00 0.00 97 1005.8
20260506234703 49 119 0.9 1.7 0.00 0.00 0.00 97 1005.8
20260506234619 49 119 0.9 1.7 0.00 0.00 0.00 97 1005.8
20260506234603 49 119 0.9 1.7 0.00 0.00 0.00 97 1005.9
20260506234303 49 118 0.9 1.7 0.00 0.00 0.00 97 1006.1
20260506234204 49 118 0.9 1.7 0.00 0.00 0.00 97 1006.0
20260506234104 49 118 0.0 1.7 0.00 0.00 0.00 97 1005.9
20260506234003 49 117 0.0 1.7 0.00 0.00 0.00 97 1005.9
20260506233903 49 116 0.0 1.7 0.00 0.00 0.00 97 1005.9
20260506233804 49 112 0.0 1.7 0.00 0.00 0.00 97 1005.9
20260506233705 49 110 0.0 0.9 0.00 0.00 0.00 97 1006.0
20260506233603 49 0 0.0 0.0 0.00 0.00 0.00 96 1005.9
20260506233503 49 0 0.0 0.0 0.00 0.00 0.00 96 1006.0
20260506233404 49 0 0.0 0.0 0.00 0.00 0.00 96 1005.9
20260506233303 49 0 0.0 0.0 0.00 0.00 0.00 96 1005.9
20260506233204 49 0 0.0 0.0 0.00 0.00 0.00 96 1006.1
20260506233104 49 0 0.0 0.0 0.00 0.00 0.00 96 1005.8
20260506233004 49 0 0.0 0.0 0.00 0.00 0.00 96 1005.8
20260506232903 49 0 0.0 0.0 0.00 0.00 0.00 96 1005.8
20260506232804 49 0 0.0 0.0 0.00 0.00 0.00 96 1005.9
20260506232704 49 0 0.0 0.0 0.00 0.00 0.00 96 1005.9
20260506232604 49 0 0.0 0.0 0.00 0.00 0.00 96 1005.9
20260506232503 49 0 0.0 0.0 0.00 0.00 0.00 96 1005.9
20260506232306 49 0 0.0 0.0 0.00 0.00 0.00 96 1005.8
20260506232204 49 0 0.0 0.0 0.00 0.00 0.00 96 1005.6
20260506232105 49 0 0.0 0.0 0.00 0.00 0.00 96 1005.8
20260506232004 49 0 0.0 0.0 0.00 0.00 0.00 96 1005.8
20260506231903 49 0 0.0 1.7 0.00 0.00 0.00 96 1005.9
20260506231804 49 110 0.0 1.7 0.00 0.00 0.00 96 1005.8
20260506231703 49 111 0.0 1.7 0.00 0.00 0.00 96 1005.9
20260506231603 49 113 0.0 1.7 0.00 0.00 0.00 96 1005.9
20260506231504 49 113 0.0 1.7 0.00 0.00 0.00 96 1005.9
20260506231404 49 113 0.0 1.7 0.00 0.00 0.00 96 1006.0
20260506231303 49 113 0.0 1.7 0.00 0.00 0.00 96 1005.8
20260506231204 49 113 0.0 1.7 0.00 0.00 0.00 96 1005.9
20260506231103 49 113 0.0 1.7 0.00 0.00 0.00 96 1005.9
20260506231017 49 113 0.0 1.7 0.00 0.00 0.00 96 1005.9
20260506231004 49 113 0.0 1.7 0.00 0.00 0.00 96 1005.8
20260506230903 49 114 0.0 1.7 0.00 0.00 0.00 96 1006.0
20260506230704 49 120 0.0 0.9 0.00 0.00 0.00 96 1005.9
20260506230603 49 0 0.0 0.9 0.00 0.00 0.00 96 1006.1
20260506230504 49 0 0.0 0.0 0.00 0.00 0.00 95 1006.1
20260506230403 49 0 0.0 0.0 0.00 0.00 0.00 95 1006.0
20260506230303 49 0 0.0 0.0 0.00 0.00 0.00 95 1006.0
20260506230204 49 0 0.0 0.0 0.00 0.00 0.00 95 1006.0
20260506230105 49 0 0.0 0.0 0.00 0.00 0.00 95 1006.0
20260506230005 49 0 0.0 0.0 0.00 0.00 0.00 95 1006.1
20260506225803 49 0 0.0 0.0 0.00 0.00 0.00 95 1006.0
20260506225704 49 0 0.0 0.0 0.00 0.00 0.00 95 1006.0
20260506225604 49 0 0.0 0.0 0.00 0.00 0.00 95 1006.0
20260506225505 49 0 0.0 0.0 0.00 0.00 0.00 95 1006.1
20260506225405 49 0 0.0 0.9 0.00 0.00 0.00 95 1006.2
20260506225317 49 0 0.0 0.9 0.00 0.00 0.00 95 1006.2
20260506225305 49 0 0.0 0.9 0.00 0.00 0.00 95 1005.9
20260506225221 49 0 0.0 0.9 0.00 0.00 0.00 95 1005.9
20260506225204 49 0 0.0 0.9 0.00 0.00 0.00 95 1006.0
20260506224903 49 0 0.0 0.9 0.00 0.00 0.00 95 1006.1
20260506224805 49 0 0.0 0.9 0.00 0.00 0.00 95 1006.1
20260506224705 49 0 0.0 0.9 0.00 0.00 0.00 95 1006.0
20260506224504 49 0 0.0 0.9 0.00 0.00 0.00 95 1006.0
20260506224404 49 120 0.0 0.9 0.00 0.00 0.00 95 1006.0
20260506224305 49 120 0.0 0.9 0.00 0.00 0.00 95 1005.9
20260506224203 49 120 0.0 0.9 0.00 0.00 0.00 95 1005.9
20260506224004 50 120 0.0 0.9 0.00 0.00 0.00 95 1005.6
20260506223904 50 120 0.0 0.9 0.00 0.00 0.00 95 1006.1
20260506223804 50 120 0.0 0.9 0.00 0.00 0.00 96 1005.9
20260506223705 50 120 0.0 0.9 0.00 0.00 0.00 96 1005.9
20260506223603 50 120 0.0 0.9 0.00 0.00 0.00 96 1005.9
20260506223504 50 120 0.0 0.9 0.00 0.00 0.00 96 1005.9
20260506223404 50 120 0.0 0.9 0.00 0.00 0.00 96 1005.9
20260506223304 50 120 0.9 0.9 0.00 0.00 0.00 96 1006.0
20260506223104 50 120 0.9 1.7 0.00 0.00 0.00 96 1005.8
20260506223005 50 120 0.9 1.7 0.00 0.00 0.00 96 1005.9
20260506222903 50 120 0.9 1.7 0.00 0.00 0.00 96 1005.8
20260506222803 50 120 0.9 1.7 0.00 0.00 0.00 96 1005.8
20260506222704 50 120 0.9 1.7 0.00 0.00 0.00 96 1005.9
20260506222603 50 120 0.9 1.7 0.00 0.00 0.00 96 1005.8
20260506222504 50 120 0.9 1.7 0.00 0.00 0.00 96 1005.8
20260506222405 50 120 0.9 1.7 0.00 0.00 0.00 96 1005.8
20260506222306 50 120 0.9 1.7 0.00 0.00 0.00 96 1005.9
20260506222204 50 121 0.9 1.7 0.00 0.00 0.00 96 1005.9
20260506222104 50 121 0.9 1.7 0.00 0.00 0.00 96 1005.9
20260506222003 50 121 0.9 1.7 0.00 0.00 0.00 96 1005.9
20260506221904 50 121 0.9 1.7 0.00 0.00 0.00 96 1005.8
20260506221805 50 121 0.9 1.7 0.00 0.00 0.00 96 1005.9
20260506221703 50 121 0.9 1.7 0.00 0.00 0.00 95 1005.6
20260506221603 50 121 0.9 1.7 0.00 0.00 0.00 95 1005.8
20260506221504 50 121 0.9 1.7 0.00 0.00 0.00 95 1005.9
20260506221404 50 121 0.9 0.9 0.00 0.00 0.00 95 1005.6
20260506221317 50 121 0.9 0.9 0.00 0.00 0.00 95 1005.6
20260506221305 50 121 0.9 0.9 0.00 0.00 0.00 95 1005.9
20260506221205 50 121 0.0 0.9 0.00 0.00 0.00 95 1005.9
20260506221003 50 121 0.0 0.9 0.00 0.00 0.00 95 1005.6
20260506220903 50 121 0.0 0.9 0.00 0.00 0.00 95 1005.9
20260506220803 50 121 0.0 0.9 0.00 0.00 0.00 95 1005.9
20260506220704 50 121 0.0 0.9 0.00 0.00 0.00 95 1005.8
20260506220603 50 0 0.0 0.0 0.00 0.00 0.00 95 1005.8
20260506220503 50 0 0.0 0.0 0.00 0.00 0.00 94 1005.8
20260506220403 50 0 0.0 0.0 0.00 0.00 0.00 94 1005.8
20260506220304 50 0 0.0 0.9 0.00 0.00 0.00 94 1005.5
20260506220203 50 0 0.0 0.9 0.00 0.00 0.00 94 1005.8
20260506220120 50 0 0.0 0.9 0.00 0.00 0.00 94 1005.8
20260506220104 50 121 0.0 0.9 0.00 0.00 0.00 94 1005.8
20260506220005 50 121 0.0 0.9 0.00 0.00 0.00 94 1005.6
20260506215803 50 121 0.0 0.9 0.00 0.00 0.00 94 1005.8
20260506215705 50 121 0.0 0.9 0.00 0.00 0.00 94 1005.8
20260506215603 50 121 0.0 0.9 0.00 0.00 0.00 94 1006.1
20260506215520 50 121 0.0 0.9 0.00 0.00 0.00 94 1006.1
20260506215403 50 121 0.0 0.9 0.00 0.00 0.00 94 1005.8
20260506215205 50 121 0.0 0.9 0.00 0.00 0.00 93 1005.8
20260506215103 50 121 0.0 0.9 0.00 0.00 0.00 93 1005.6
20260506215004 50 0 0.0 0.0 0.00 0.00 0.00 93 1005.9
20260506214904 50 0 0.0 0.0 0.00 0.00 0.00 93 1005.9
20260506214808 50 0 0.0 0.0 0.00 0.00 0.00 93 1005.8
20260506214703 50 0 0.0 0.0 0.00 0.00 0.00 93 1005.8
20260506214605 50 0 0.0 0.0 0.00 0.00 0.00 93 1005.9
20260506214503 50 0 0.0 0.0 0.00 0.00 0.00 93 1005.8
20260506214403 50 0 0.0 0.0 0.00 0.00 0.00 93 1005.9
20260506214303 51 0 0.0 0.0 0.00 0.00 0.00 93 1005.9
20260506214217 51 0 0.0 0.0 0.00 0.00 0.00 93 1005.9
20260506214205 51 0 0.0 0.0 0.00 0.00 0.00 93 1005.6
20260506214103 51 0 0.0 0.0 0.00 0.00 0.00 93 1005.6
20260506213903 51 0 0.0 0.0 0.00 0.00 0.00 93 1005.9
20260506213804 51 0 0.0 0.0 0.00 0.00 0.00 93 1005.9
20260506213718 51 0 0.0 0.0 0.00 0.00 0.00 93 1005.9
20260506213703 51 0 0.0 0.0 0.00 0.00 0.00 93 1005.6
20260506213603 51 0 0.0 0.0 0.00 0.00 0.00 93 1005.9
20260506213403 51 0 0.0 0.0 0.00 0.00 0.00 93 1005.9
20260506213303 51 0 0.0 0.0 0.00 0.00 0.00 93 1005.8
20260506213204 51 0 0.0 0.0 0.00 0.00 0.00 93 1006.0
20260506213103 51 0 0.0 0.0 0.00 0.00 0.00 93 1005.9
20260506213003 51 0 0.0 0.0 0.00 0.01 0.00 93 1005.6
20260506212904 51 0 0.0 0.0 0.00 0.01 0.00 92 1005.6
20260506212817 51 0 0.0 0.0 0.00 0.01 0.00 92 1005.6
20260506212804 51 0 0.0 0.0 0.00 0.01 0.00 92 1005.9
20260506212704 51 0 0.0 0.0 0.00 0.01 0.00 92 1006.0
20260506212503 51 0 0.0 0.0 0.00 0.01 0.00 92 1005.8
20260506212404 51 0 0.0 0.0 0.00 0.01 0.00 92 1005.9
20260506212318 51 0 0.0 0.0 0.00 0.01 0.00 92 1005.9
20260506212306 51 0 0.0 0.0 0.00 0.01 0.00 92 1005.8
20260506212217 51 0 0.0 0.0 0.00 0.01 0.00 92 1005.8
20260506212203 51 0 0.0 0.0 0.00 0.01 0.00 92 1005.9
20260506211905 51 0 0.0 0.0 0.00 0.01 0.00 91 1005.8
20260506211820 52 0 0.0 0.0 0.00 0.01 0.00 91 1005.8
20260506211803 52 0 0.0 0.0 0.00 0.01 0.00 91 1005.6
20260506211704 52 0 0.0 0.0 0.00 0.01 0.00 91 1005.6
20260506211504 52 0 0.0 0.0 0.00 0.01 0.00 91 1005.6
20260506211404 52 0 0.0 0.0 0.00 0.01 0.00 91 1005.8
20260506211304 52 0 0.0 0.0 0.00 0.01 0.00 91 1005.5
20260506211204 52 0 0.0 0.0 0.00 0.01 0.00 91 1005.6
20260506211103 52 0 0.0 0.0 0.00 0.01 0.00 91 1005.6
20260506211003 52 0 0.0 0.0 0.00 0.01 0.00 91 1005.8
20260506210804 52 0 0.0 0.0 0.00 0.01 0.00 91 1005.8
20260506210709 52 0 0.0 0.0 0.00 0.01 0.00 91 1005.6
20260506210603 52 0 0.0 0.0 0.00 0.01 0.00 91 1005.8
20260506210517 52 0 0.0 0.0 0.00 0.01 0.00 91 1005.8
20260506210503 52 0 0.0 0.0 0.00 0.01 0.00 91 1005.6
20260506210403 52 0 0.0 0.0 0.00 0.01 0.00 91 1005.6
20260506210104 53 0 0.0 0.0 0.00 0.01 0.00 91 1005.6
20260506210004 53 0 0.0 0.0 0.00 0.01 0.00 91 1005.8
20260506205903 53 0 0.0 0.0 0.00 0.01 0.00 91 1005.6
20260506205805 53 0 0.0 0.0 0.00 0.01 0.00 91 1005.6
20260506205704 53 0 0.0 0.0 0.00 0.01 0.00 91 1005.6
20260506205604 53 0 0.0 0.0 0.00 0.01 0.00 91 1005.8
20260506205505 53 0 0.0 0.0 0.00 0.01 0.00 91 1005.5
20260506205403 53 0 0.0 0.0 0.00 0.01 0.00 91 1005.6
20260506205320 53 0 0.0 0.0 0.00 0.01 0.00 91 1005.6
20260506205306 53 0 0.0 0.0 0.00 0.01 0.00 91 1005.5
20260506205203 53 0 0.0 0.0 0.00 0.01 0.00 91 1005.5
20260506205004 53 0 0.0 0.0 0.00 0.01 0.00 91 1005.6
20260506204904 53 0 0.0 0.0 0.00 0.01 0.00 91 1005.6
20260506204817 53 0 0.0 0.0 0.00 0.01 0.00 91 1005.6
20260506204803 53 0 0.0 0.0 0.00 0.01 0.00 91 1005.5
20260506204703 53 0 0.0 0.0 0.00 0.01 0.00 91 1005.6
20260506204504 54 0 0.0 0.0 0.00 0.01 0.00 90 1005.6
20260506204403 54 0 0.0 0.0 0.00 0.01 0.00 90 1005.9
20260506204303 54 0 0.0 0.0 0.00 0.01 0.00 90 1005.6
20260506204203 54 0 0.0 0.0 0.00 0.01 0.00 90 1005.8
20260506204104 54 0 0.0 0.0 0.00 0.01 0.00 90 1005.6
20260506204003 54 0 0.0 0.0 0.00 0.01 0.00 90 1005.5
20260506203903 54 0 0.0 0.0 0.00 0.01 0.00 90 1005.6
20260506203804 54 0 0.0 0.0 0.00 0.01 0.00 90 1005.8
20260506203704 54 0 0.0 0.0 0.00 0.01 0.00 90 1005.4
20260506203609 54 0 0.0 0.0 0.00 0.01 0.00 89 1005.5
20260506203503 54 0 0.0 0.0 0.00 0.01 0.00 89 1005.9
20260506203404 54 0 0.0 0.0 0.00 0.01 0.00 89 1005.5
20260506203303 54 0 0.0 0.0 0.00 0.01 0.00 89 1005.5
20260506203218 54 0 0.0 0.0 0.00 0.01 0.00 89 1005.5
20260506203204 54 0 0.0 0.0 0.00 0.01 0.00 89 1005.6
20260506203117 54 0 0.0 0.0 0.00 0.01 0.00 89 1005.5
20260506202904 55 0 0.0 0.0 0.00 0.01 0.00 89 1005.5
20260506202803 55 0 0.0 0.0 0.00 0.01 0.00 88 1005.6
20260506202604 55 0 0.0 0.0 0.00 0.01 0.00 88 1005.6
20260506202504 55 0 0.0 0.0 0.00 0.01 0.00 88 1005.6
20260506202306 55 0 0.0 0.0 0.00 0.01 0.00 88 1005.4
20260506202203 55 0 0.0 0.0 0.00 0.01 0.00 88 1005.6
20260506202003 55 0 0.0 0.0 0.00 0.01 0.00 88 1005.6
20260506201909 55 0 0.0 0.0 0.00 0.01 0.00 88 1005.6
20260506201804 55 0 0.0 0.0 0.00 0.01 0.00 87 1005.5
20260506201705 55 0 0.0 0.0 0.00 0.01 0.00 87 1005.4
20260506201604 55 0 0.0 0.0 0.00 0.01 0.00 87 1005.5
20260506201503 55 0 0.0 0.0 0.00 0.01 0.00 87 1005.4
20260506201404 55 0 0.0 0.0 0.00 0.01 0.00 86 1005.5
20260506201303 55 0 0.0 0.0 0.00 0.01 0.00 86 1005.5
20260506201205 55 0 0.0 0.0 0.00 0.01 0.00 86 1005.5
20260506201104 55 0 0.0 0.0 0.00 0.01 0.00 86 1005.5
20260506201004 55 0 0.0 0.0 0.00 0.01 0.00 86 1005.5
20260506200904 56 0 0.0 0.0 0.00 0.01 0.00 86 1005.3
20260506200817 56 0 0.0 0.0 0.00 0.01 0.00 85 1005.3
20260506200804 56 0 0.0 0.0 0.00 0.01 0.00 85 1005.4
20260506200704 56 0 0.0 0.0 0.00 0.01 0.00 85 1005.4
20260506200505 56 0 0.0 0.0 0.00 0.01 0.00 85 1005.4
20260506200403 56 0 0.0 0.0 0.00 0.01 0.00 85 1005.5
20260506200303 56 0 0.0 0.0 0.00 0.01 0.00 85 1005.5
20260506200203 56 0 0.0 0.0 0.00 0.01 0.00 85 1005.5
20260506200104 56 0 0.0 0.9 0.00 0.01 0.00 85 1005.5
20260506200004 56 0 0.0 0.9 0.00 0.01 0.00 85 1005.6
20260506195903 56 122 0.0 0.9 0.00 0.01 0.00 85 1005.5
20260506195808 56 122 0.0 0.9 0.00 0.01 0.00 85 1005.8
20260506195705 56 122 0.0 0.9 0.00 0.01 0.00 85 1005.5
20260506195603 56 122 0.0 0.9 0.00 0.01 0.00 85 1005.5
20260506195504 56 122 0.0 0.9 0.00 0.01 0.00 85 1005.5
20260506195405 56 122 0.0 0.9 0.00 0.01 0.00 85 1005.6
20260506195306 56 122 0.0 0.9 0.00 0.01 0.00 85 1005.5
20260506195219 56 122 0.0 0.9 0.00 0.01 0.00 85 1005.5
20260506195203 56 122 0.0 0.9 0.00 0.01 0.00 85 1005.6
20260506195103 56 122 0.0 0.9 0.00 0.01 0.00 85 1005.6
20260506194903 57 122 0.0 0.9 0.00 0.01 0.00 85 1005.6
20260506194821 57 122 0.0 1.7 0.00 0.01 0.00 85 1005.6
20260506194804 57 122 0.0 1.7 0.00 0.01 0.00 85 1005.5
20260506194719 57 122 0.9 1.7 0.00 0.01 0.00 85 1005.5
20260506194705 57 122 0.9 1.7 0.00 0.01 0.00 85 1005.8
20260506194404 57 121 0.9 1.7 0.00 0.01 0.00 85 1005.4
20260506194303 57 122 0.9 1.7 0.00 0.01 0.00 85 1005.9
20260506194221 57 125 0.9 1.7 0.00 0.01 0.00 85 1005.9
20260506194204 57 125 0.9 1.7 0.00 0.01 0.00 85 1005.8
20260506194104 57 125 0.9 1.7 0.00 0.01 0.00 85 1005.8
20260506193804 57 127 0.9 1.7 0.00 0.01 0.00 85 1005.8
20260506193703 57 129 0.0 0.9 0.00 0.01 0.00 84 1005.5
20260506193603 58 146 0.0 0.9 0.00 0.01 0.00 84 1005.4
20260506193518 58 168 0.0 0.9 0.00 0.01 0.00 84 1005.4
20260506193503 58 175 0.0 0.9 0.00 0.01 0.00 84 1005.8
20260506193403 58 214 0.0 0.9 0.00 0.01 0.00 83 1005.8
20260506193205 58 248 0.0 0.9 0.00 0.01 0.00 83 1005.9
20260506193104 58 248 0.0 0.9 0.00 0.01 0.00 82 1005.8
20260506193003 58 248 0.0 0.9 0.00 0.01 0.00 81 1005.5
20260506192904 58 248 0.0 0.9 0.00 0.01 0.00 81 1005.6
20260506192804 58 248 0.0 0.9 0.00 0.01 0.00 81 1005.9
20260506192704 58 248 0.0 0.9 0.00 0.01 0.00 81 1005.5
20260506192603 58 248 0.0 0.9 0.00 0.01 0.00 80 1005.5
20260506192505 58 248 0.0 0.9 0.00 0.01 0.00 80 1005.6
20260506192404 58 248 0.0 0.9 0.00 0.01 0.00 80 1005.6
20260506192305 58 248 0.0 0.9 0.00 0.01 0.00 80 1005.8
20260506192103 58 248 0.0 0.9 0.00 0.01 0.00 80 1005.6
20260506192003 59 246 0.0 1.7 0.00 0.01 0.00 80 1005.6
20260506191904 59 242 0.0 1.7 0.00 0.01 0.00 80 1005.5
20260506191803 59 243 0.9 2.6 0.00 0.01 0.00 79 1005.5
20260506191705 59 243 0.9 2.6 0.00 0.01 0.00 80 1005.8
20260506191620 59 244 0.9 2.6 0.00 0.01 0.00 80 1005.8
20260506191604 59 244 0.9 2.6 0.00 0.01 0.00 79 1005.8
20260506191503 59 246 0.9 2.6 0.00 0.01 0.00 80 1005.6
20260506191303 59 246 0.9 2.6 0.00 0.01 0.00 79 1005.5
20260506191205 59 246 0.9 2.6 0.00 0.01 0.00 79 1005.9
20260506191104 59 245 0.9 2.6 0.00 0.01 0.00 79 1005.6
20260506191019 59 245 0.9 2.6 0.00 0.01 0.00 79 1005.6
20260506191003 59 246 0.9 2.6 0.00 0.01 0.00 79 1005.8
20260506190903 59 249 1.7 2.6 0.00 0.01 0.00 79 1005.6
20260506190703 60 250 1.7 2.6 0.00 0.01 0.00 78 1005.8
20260506190617 60 250 1.7 2.6 0.00 0.01 0.00 79 1005.8
20260506190603 60 249 1.7 2.6 0.00 0.01 0.00 79 1005.6
20260506190505 60 248 1.7 2.6 0.00 0.01 0.00 79 1005.5
20260506190305 60 248 0.9 2.6 0.00 0.01 0.00 78 1005.4
20260506190203 60 248 0.9 3.5 0.00 0.01 0.00 78 1005.6
20260506190103 60 247 0.9 3.5 0.00 0.01 0.00 77 1005.5
20260506190018 60 245 0.9 3.5 0.00 0.01 0.00 77 1005.5
20260506190005 60 245 0.9 3.5 0.00 0.01 0.00 78 1005.4
20260506185904 60 242 0.9 3.5 0.00 0.01 0.00 77 1005.4
20260506185720 60 241 0.9 3.5 0.00 0.01 0.00 77 1005.5
20260506185703 60 240 0.9 3.5 0.00 0.01 0.00 77 1005.5
20260506185603 60 238 0.9 3.5 0.00 0.01 0.00 77 1005.5
20260506185518 60 237 0.9 3.5 0.00 0.01 0.00 77 1005.5
20260506185403 60 233 0.9 3.5 0.00 0.01 0.00 77 1005.5
20260506185218 61 232 0.9 3.5 0.00 0.01 0.00 76 1005.5
20260506185203 61 232 0.9 3.5 0.00 0.01 0.00 76 1005.3
20260506185103 61 231 0.9 1.7 0.00 0.01 0.00 76 1005.3
20260506184903 61 233 0.9 2.6 0.00 0.01 0.00 77 1005.4
20260506184820 61 231 0.9 2.6 0.00 0.01 0.00 76 1005.4
20260506184817 61 231 0.9 2.6 0.00 0.01 0.00 76 1005.3
20260506184705 61 230 0.9 2.6 0.00 0.01 0.00 76 1005.2
20260506184505 61 230 0.9 2.6 0.00 0.01 0.00 75 1005.1
20260506184404 62 232 0.9 2.6 0.00 0.01 0.00 75 1005.2
20260506184317 62 232 0.9 2.6 0.00 0.01 0.00 75 1005.2
20260506184305 62 232 0.9 2.6 0.00 0.01 0.00 75 1005.3
20260506184203 62 232 0.9 2.6 0.00 0.01 0.00 74 1005.2
20260506184005 62 234 0.9 2.6 0.00 0.01 0.00 74 1005.1
20260506183903 62 234 0.9 2.6 0.00 0.01 0.00 73 1005.1
20260506183804 62 237 0.9 2.6 0.00 0.01 0.00 74 1005.1
20260506183704 62 240 0.9 3.5 0.00 0.01 0.00 74 1005.0
20260506183504 62 244 0.9 3.5 0.00 0.01 0.00 73 1005.1
20260506183405 62 244 0.9 3.5 0.00 0.01 0.00 73 1005.0
20260506183303 63 245 0.9 3.5 0.00 0.01 0.00 73 1005.2
20260506183203 63 245 0.9 3.5 0.00 0.01 0.00 72 1005.0
20260506183117 63 245 0.9 3.5 0.00 0.01 0.00 72 1005.2
20260506183105 63 244 1.7 3.5 0.00 0.01 0.00 72 1005.2
20260506183005 63 245 1.7 3.5 0.00 0.01 0.00 70 1005.2
20260506182918 63 245 1.7 3.5 0.00 0.01 0.00 70 1005.2
20260506182803 63 247 1.7 3.5 0.00 0.01 0.00 72 1005.1
20260506182504 63 251 0.9 2.6 0.00 0.01 0.00 71 1004.9
20260506182403 64 252 0.9 2.6 0.00 0.01 0.00 69 1005.0
20260506182306 64 252 0.9 2.6 0.00 0.01 0.00 70 1005.1
20260506182204 64 251 0.9 2.6 0.00 0.01 0.00 70 1004.7
20260506182104 64 252 0.9 2.6 0.00 0.01 0.00 69 1004.9
20260506182004 64 252 0.9 2.6 0.00 0.01 0.00 68 1004.9
20260506181904 64 253 0.9 2.6 0.00 0.01 0.00 69 1004.9
20260506181803 64 253 0.9 2.6 0.00 0.01 0.00 68 1004.7
20260506181704 64 251 0.9 2.6 0.00 0.01 0.00 69 1004.8
20260506181603 64 249 0.9 2.6 0.00 0.01 0.00 67 1004.8
20260506181504 64 249 0.9 2.6 0.00 0.01 0.00 68 1004.8
20260506181403 65 246 0.9 2.6 0.00 0.01 0.00 68 1004.7
20260506181319 65 245 0.9 2.6 0.00 0.01 0.00 68 1004.7
20260506181204 65 246 0.9 2.6 0.00 0.01 0.00 68 1004.7
20260506181004 65 246 0.9 2.6 0.00 0.01 0.00 68 1004.6
20260506180905 65 244 0.9 2.6 0.00 0.01 0.00 68 1004.7
20260506180804 65 243 0.9 2.6 0.00 0.01 0.00 68 1004.7
20260506180705 65 242 0.9 2.6 0.00 0.01 0.00 66 1004.7
20260506180603 65 243 0.9 3.5 0.00 0.01 0.00 66 1004.6
20260506180503 65 244 0.9 3.5 0.00 0.01 0.00 67 1004.7
20260506180403 66 244 0.9 3.5 0.00 0.01 0.00 66 1004.5
20260506180303 66 245 0.9 3.5 0.00 0.01 0.00 66 1004.5
20260506180204 66 246 0.9 3.5 0.00 0.01 0.00 65 1004.6
20260506180103 66 248 0.9 3.5 0.00 0.01 0.00 65 1004.6
20260506180005 66 249 0.9 3.5 0.00 0.01 0.00 64 1004.7
20260506175903 66 251 0.9 3.5 0.00 0.01 0.00 64 1004.4
20260506175803 67 252 0.9 6.1 0.00 0.01 0.00 66 1004.5
20260506175704 67 255 1.7 6.1 0.00 0.01 0.00 63 1004.5
20260506175604 67 255 1.7 6.1 0.00 0.01 0.00 63 1004.5
20260506175503 67 255 1.7 6.1 0.00 0.01 0.00 62 1004.5
20260506175404 67 256 1.7 6.1 0.00 0.01 0.00 64 1004.6
20260506175306 67 254 1.7 6.1 0.00 0.01 0.00 64 1004.4
20260506175204 67 253 1.7 6.1 0.00 0.01 0.00 63 1004.5
20260506175105 67 252 1.7 6.1 0.00 0.01 0.00 62 1004.6
20260506175003 67 252 1.7 7.0 0.00 0.01 0.00 62 1004.4
20260506174903 67 251 1.7 7.0 0.00 0.01 0.00 62 1004.5
20260506174820 68 250 1.7 7.0 0.00 0.01 0.00 62 1004.5
20260506174803 68 250 1.7 7.0 0.00 0.01 0.00 62 1004.3
20260506174704 68 249 1.7 7.0 0.00 0.01 0.00 60 1004.4
20260506174504 68 247 1.7 7.0 0.00 0.01 0.00 61 1004.4
20260506174404 68 248 1.7 7.0 0.00 0.01 0.00 61 1004.5
20260506174309 68 250 1.7 7.0 0.00 0.01 0.00 61 1004.4
20260506174203 68 252 1.7 7.0 0.00 0.01 0.00 61 1004.3
20260506174103 68 256 1.7 7.0 0.00 0.01 0.00 59 1004.4
20260506174003 68 256 1.7 7.0 0.00 0.01 0.00 59 1004.3
20260506173919 68 256 1.7 7.0 0.00 0.01 0.00 59 1004.3
20260506173903 69 257 1.7 7.0 0.00 0.01 0.00 60 1004.5
20260506173803 69 260 1.7 3.5 0.00 0.01 0.00 59 1004.3
20260506173604 69 263 1.7 5.2 0.00 0.01 0.00 59 1004.4
20260506173403 69 266 2.6 5.2 0.00 0.01 0.00 58 1004.3
20260506173304 69 265 2.6 6.1 0.00 0.01 0.00 57 1004.4
20260506173204 69 265 2.6 6.1 0.00 0.01 0.00 57 1004.3
20260506173105 69 266 2.6 6.1 0.00 0.01 0.00 56 1004.3
20260506173003 69 267 2.6 6.1 0.00 0.01 0.00 57 1004.2
20260506172917 69 267 2.6 6.1 0.00 0.01 0.00 56 1004.2
20260506172903 69 268 2.6 6.1 0.00 0.01 0.00 56 1004.3
20260506172804 69 268 2.6 6.1 0.00 0.01 0.00 56 1004.4
20260506172603 70 268 2.6 6.1 0.00 0.01 0.00 55 1004.2
20260506172504 70 269 2.6 6.1 0.00 0.01 0.00 56 1004.3
20260506172403 70 270 2.6 6.1 0.00 0.01 0.00 55 1004.3
20260506172307 70 271 2.6 6.1 0.00 0.01 0.00 55 1004.3
20260506172219 70 272 2.6 6.1 0.00 0.01 0.00 55 1004.3
20260506172203 70 272 2.6 6.1 0.00 0.01 0.00 55 1004.2
20260506172105 70 273 2.6 5.2 0.00 0.01 0.00 55 1004.2
20260506171903 70 271 2.6 5.2 0.00 0.01 0.00 54 1004.2
20260506171805 70 272 2.6 5.2 0.00 0.01 0.00 54 1004.1
20260506171705 70 272 2.6 6.1 0.00 0.01 0.00 54 1004.3
20260506171604 70 272 2.6 6.1 0.00 0.01 0.00 54 1004.2
20260506171503 71 270 2.6 6.1 0.00 0.01 0.00 54 1004.1
20260506171404 71 270 3.5 6.1 0.00 0.01 0.00 54 1004.2
20260506171304 71 268 2.6 6.1 0.00 0.01 0.00 54 1004.3
20260506171203 71 268 2.6 6.1 0.00 0.01 0.00 53 1004.0
20260506171103 71 267 2.6 6.1 0.00 0.01 0.00 53 1004.3
20260506171003 71 266 2.6 6.1 0.00 0.01 0.00 53 1004.1
20260506170917 71 267 2.6 6.1 0.00 0.01 0.00 53 1004.1
20260506170903 71 268 2.6 6.1 0.00 0.01 0.00 53 1004.2
20260506170804 71 270 2.6 7.0 0.00 0.01 0.00 53 1003.9
20260506170603 71 273 2.6 7.0 0.00 0.01 0.00 52 1004.2
20260506170504 71 274 3.5 8.7 0.00 0.01 0.00 53 1004.0
20260506170403 71 271 3.5 11.3 0.00 0.01 0.00 52 1004.1
20260506170317 71 271 3.5 11.3 0.00 0.01 0.00 52 1004.0
20260506170304 71 272 3.5 11.3 0.00 0.01 0.00 52 1004.0
20260506170204 72 273 4.3 11.3 0.00 0.01 0.00 52 1004.0
20260506170004 72 274 4.3 11.3 0.00 0.01 0.00 52 1003.9
20260506165903 72 273 5.2 11.3 0.00 0.01 0.00 51 1004.1
20260506165804 72 272 5.2 11.3 0.00 0.01 0.00 51 1004.1
20260506165703 72 269 5.2 11.3 0.00 0.01 0.00 51 1004.0
20260506165604 72 269 5.2 11.3 0.00 0.01 0.00 50 1003.9
20260506165503 72 268 5.2 11.3 0.00 0.01 0.00 51 1004.0
20260506165403 72 269 4.3 11.3 0.00 0.01 0.00 50 1004.1
20260506165305 72 269 4.3 11.3 0.00 0.01 0.00 50 1004.0
20260506165203 72 267 4.3 11.3 0.00 0.01 0.00 50 1003.8
20260506165104 72 268 4.3 11.3 0.00 0.01 0.00 50 1004.0
20260506165018 72 266 4.3 11.3 0.00 0.01 0.00 49 1004.0
20260506165003 72 265 4.3 11.3 0.00 0.01 0.00 49 1004.0
20260506164903 72 264 3.5 11.3 0.00 0.01 0.00 49 1004.0
20260506164718 73 272 3.5 11.3 0.00 0.01 0.00 49 1004.0
20260506164704 73 273 4.3 11.3 0.00 0.01 0.00 49 1004.1
20260506164605 73 270 4.3 11.3 0.00 0.01 0.00 49 1003.9
20260506164519 73 271 4.3 11.3 0.00 0.01 0.00 48 1003.9
20260506164403 73 269 4.3 11.3 0.00 0.01 0.00 48 1004.0
20260506164203 73 268 5.2 12.2 0.00 0.01 0.00 48 1004.0
20260506164103 73 266 5.2 12.2 0.00 0.01 0.00 48 1003.9
20260506164004 73 268 6.1 12.2 0.00 0.01 0.00 48 1003.9
20260506163904 73 267 6.1 12.2 0.00 0.01 0.00 48 1003.9
20260506163804 73 265 6.1 18.2 0.00 0.01 0.00 47 1003.7
20260506163704 73 262 6.1 18.2 0.00 0.01 0.00 47 1003.9
20260506163604 73 265 6.1 18.2 0.00 0.01 0.00 47 1004.1
20260506163504 73 264 6.1 18.2 0.00 0.01 0.00 48 1003.8
20260506163403 73 265 7.0 18.2 0.00 0.01 0.00 48 1003.9
20260506163319 73 266 7.0 18.2 0.00 0.01 0.00 47 1003.9
20260506163303 73 267 7.0 18.2 0.00 0.01 0.00 47 1004.0
20260506163204 73 268 7.0 18.2 0.00 0.01 0.00 47 1003.9
20260506163019 73 268 6.1 18.2 0.00 0.01 0.00 47 1003.9
20260506163004 73 268 6.1 18.2 0.00 0.01 0.00 47 1003.9
20260506162903 73 270 7.0 18.2 0.00 0.01 0.00 47 1003.9
20260506162704 74 270 7.0 18.2 0.00 0.01 0.00 47 1003.8
20260506162617 74 267 6.1 14.8 0.00 0.01 0.00 47 1003.8
20260506162603 74 268 6.1 14.8 0.00 0.01 0.00 47 1003.9
20260506162503 74 271 7.0 14.8 0.00 0.01 0.00 47 1004.0
20260506162307 74 268 6.1 14.8 0.00 0.01 0.00 46 1003.8
20260506162203 74 268 6.1 14.8 0.00 0.01 0.00 45 1004.0
20260506162104 74 268 6.1 14.8 0.00 0.01 0.00 46 1003.9
20260506162003 74 269 6.1 14.8 0.00 0.01 0.00 45 1003.7
20260506161904 74 268 6.1 14.8 0.00 0.01 0.00 45 1003.9
20260506161804 74 268 6.1 14.8 0.00 0.01 0.00 45 1003.9
20260506161705 74 267 6.1 14.8 0.00 0.01 0.00 45 1003.7
20260506161604 74 265 6.1 14.8 0.00 0.01 0.00 45 1003.6
20260506161517 74 262 5.2 13.9 0.00 0.01 0.00 46 1003.6
20260506161504 74 262 5.2 13.9 0.00 0.01 0.00 46 1003.7
20260506161403 74 263 6.1 14.8 0.00 0.01 0.00 45 1003.6
20260506161204 74 262 6.1 19.1 0.00 0.01 0.00 44 1003.7
20260506161104 74 261 6.1 19.1 0.00 0.01 0.00 44 1003.8
20260506161004 74 260 7.0 19.1 0.00 0.01 0.00 44 1003.7
20260506160904 74 258 7.0 19.1 0.00 0.01 0.00 44 1003.7
20260506160804 74 257 7.0 19.1 0.00 0.01 0.00 45 1003.8
20260506160704 75 257 7.0 19.1 0.00 0.01 0.00 45 1003.8
20260506160604 75 260 7.8 19.1 0.00 0.01 0.00 44 1003.5
20260506160504 75 260 7.8 19.1 0.00 0.01 0.00 44 1003.6
20260506160403 75 260 7.8 19.1 0.00 0.01 0.00 44 1003.7
20260506160304 75 260 7.8 19.1 0.00 0.01 0.00 44 1003.6
20260506160205 75 261 7.8 19.1 0.00 0.01 0.00 43 1003.5
20260506160105 75 260 7.0 19.1 0.00 0.01 0.00 43 1003.7
20260506160016 76 260 7.0 18.2 0.00 0.01 0.00 42 1003.7
20260506160005 76 259 7.0 18.2 0.00 0.01 0.00 42 1003.7
20260506155904 76 262 7.0 18.2 0.00 0.01 0.00 42 1003.6
20260506155703 76 267 6.1 18.2 0.00 0.01 0.00 42 1003.6
20260506155605 76 266 5.2 18.2 0.00 0.01 0.00 43 1003.6
20260506155503 76 265 5.2 18.2 0.00 0.01 0.00 44 1003.6
20260506155404 76 266 5.2 18.2 0.00 0.01 0.00 43 1003.5
20260506155306 76 263 5.2 13.0 0.00 0.01 0.00 42 1003.5
20260506155205 76 263 5.2 13.0 0.00 0.01 0.00 42 1003.6
20260506155103 76 264 5.2 13.0 0.00 0.01 0.00 42 1003.6
20260506155004 76 262 4.3 12.2 0.00 0.01 0.00 43 1003.6
20260506154903 77 259 4.3 12.2 0.00 0.01 0.00 43 1003.7
20260506154819 77 259 4.3 13.9 0.00 0.01 0.00 43 1003.7
20260506154804 77 259 5.2 13.9 0.00 0.01 0.00 43 1003.6
20260506154704 76 253 5.2 13.9 0.00 0.01 0.00 42 1003.5
20260506154503 77 247 6.1 14.8 0.00 0.01 0.00 41 1003.6
20260506154404 77 242 6.1 14.8 0.00 0.01 0.00 42 1003.6
20260506154304 77 244 6.1 14.8 0.00 0.01 0.00 42 1003.6
20260506154204 77 242 6.1 14.8 0.00 0.01 0.00 41 1003.6
20260506154104 76 241 6.1 14.8 0.00 0.01 0.00 42 1003.5
20260506154003 76 242 6.1 14.8 0.00 0.01 0.00 42 1003.5
20260506153817 76 243 6.1 14.8 0.00 0.01 0.00 41 1003.5
20260506153804 76 242 6.1 14.8 0.00 0.01 0.00 41 1003.6
20260506153704 76 244 5.2 14.8 0.00 0.01 0.00 41 1003.4
20260506153517 76 248 4.3 14.8 0.00 0.01 0.00 41 1003.5
20260506153503 76 248 4.3 14.8 0.00 0.01 0.00 41 1003.8
20260506153419 76 253 4.3 14.8 0.00 0.01 0.00 41 1003.8
20260506153403 76 255 4.3 14.8 0.00 0.01 0.00 43 1003.4
20260506153104 76 255 3.5 11.3 0.00 0.01 0.00 42 1003.6
20260506153003 75 259 3.5 12.2 0.00 0.01 0.00 43 1003.5
20260506152904 75 263 3.5 12.2 0.00 0.01 0.00 43 1003.7
20260506152804 75 261 4.3 12.2 0.00 0.01 0.00 42 1003.4
20260506152704 75 263 4.3 12.2 0.00 0.01 0.00 43 1003.6
20260506152621 75 263 4.3 12.2 0.00 0.01 0.00 42 1003.6
20260506152604 75 264 4.3 13.0 0.00 0.01 0.00 42 1003.6
20260506152503 75 266 5.2 13.0 0.00 0.01 0.00 43 1003.6
20260506152320 75 265 5.2 14.8 0.00 0.01 0.00 43 1003.5
20260506152306 75 265 5.2 14.8 0.00 0.01 0.00 43 1003.6
20260506152203 75 264 5.2 14.8 0.00 0.01 0.00 44 1003.8
20260506152003 75 262 6.1 14.8 0.00 0.01 0.00 43 1003.5
20260506151903 75 260 5.2 14.8 0.00 0.01 0.00 43 1003.6
20260506151817 75 261 5.2 14.8 0.00 0.01 0.00 41 1003.6
20260506151803 75 262 5.2 14.8 0.00 0.01 0.00 41 1003.4
20260506151703 76 259 6.1 14.8 0.00 0.01 0.00 42 1003.6
20260506151521 76 258 6.1 14.8 0.00 0.01 0.00 41 1003.4
20260506151503 76 258 5.2 14.8 0.00 0.01 0.00 41 1003.4
20260506151403 76 258 5.2 14.8 0.00 0.01 0.00 41 1003.3
20260506151221 76 253 5.2 14.8 0.00 0.01 0.00 42 1003.3
20260506151204 76 253 5.2 14.8 0.00 0.01 0.00 42 1003.4
20260506151104 77 250 5.2 14.8 0.00 0.01 0.00 43 1003.3
20260506150903 77 248 6.1 14.8 0.00 0.01 0.00 41 1003.3
20260506150805 77 242 6.1 14.8 0.00 0.04 0.00 40 1003.4
20260506150703 77 241 6.1 13.9 0.00 0.07 0.00 40 1003.5
20260506150603 77 238 6.1 13.9 0.00 0.11 0.00 41 1003.4
20260506150504 77 237 6.1 13.9 0.00 0.14 0.00 41 1003.2
20260506150404 77 240 6.1 13.9 0.00 0.15 0.00 41 1003.5
20260506150305 77 242 6.1 13.9 0.00 0.15 0.00 41 1003.3
20260506150203 77 239 6.1 18.2 0.00 0.15 0.00 40 1003.3
20260506150104 77 238 6.1 18.2 0.00 0.15 0.00 40 1003.4
20260506150003 77 239 6.1 18.2 0.00 0.15 0.00 40 1003.2
20260506145918 77 239 6.1 18.2 0.00 0.15 0.00 40 1003.2
20260506145904 76 239 6.1 18.2 0.00 0.15 0.00 41 1003.2
20260506145803 76 244 6.1 18.2 0.00 0.15 0.00 41 1003.4
20260506145603 76 249 6.1 18.2 0.00 0.15 0.00 41 1003.4
20260506145504 76 249 6.1 18.2 0.00 0.15 0.00 41 1003.3
20260506145415 76 247 6.1 18.2 0.00 0.15 0.00 41 1003.3
20260506145103 76 254 7.0 18.2 0.00 0.15 0.00 40 1003.4
20260506145003 76 256 6.1 14.8 0.00 0.15 0.00 40 1003.3
20260506144904 76 258 6.1 14.8 0.00 0.15 0.00 39 1003.4
20260506144803 76 258 6.1 14.8 0.00 0.15 0.00 39 1003.4
20260506144703 76 257 6.1 14.8 0.00 0.15 0.00 38 1003.3
20260506144616 76 257 6.1 13.9 0.00 0.15 0.00 39 1003.2
20260506144603 76 255 6.1 13.9 0.00 0.15 0.00 39 1003.2
20260506144504 76 255 6.1 14.8 0.00 0.15 0.00 38 1003.3
20260506144303 76 257 7.0 15.6 0.00 0.15 0.00 38 1003.4
20260506144204 76 256 7.0 15.6 0.00 0.15 0.00 38 1003.3
20260506144104 76 257 7.0 15.6 0.00 0.15 0.00 37 1003.3
20260506144005 76 258 7.0 15.6 0.00 0.15 0.00 38 1003.2
20260506143905 77 257 7.0 15.6 0.00 0.15 0.00 38 1003.4
20260506143804 77 255 7.0 15.6 0.00 0.15 0.00 36 1003.2
20260506143704 77 251 7.0 15.6 0.00 0.15 0.00 36 1003.2
20260506143604 77 247 7.0 15.6 0.00 0.15 0.00 36 1003.2
20260506143517 77 245 7.0 15.6 0.00 0.15 0.00 36 1003.2
20260506143505 77 244 6.1 15.6 0.00 0.15 0.00 36 1003.2
20260506143404 77 241 6.1 15.6 0.00 0.15 0.00 36 1003.3
20260506143204 78 229 5.2 15.6 0.00 0.15 0.00 36 1003.3
20260506143104 78 223 4.3 13.9 0.00 0.15 0.00 36 1003.1
20260506143004 78 217 4.3 13.9 0.00 0.15 0.00 37 1003.1
20260506142917 78 215 5.2 13.9 0.00 0.15 0.00 36 1003.1
20260506142904 78 214 5.2 13.9 0.00 0.15 0.00 36 1003.1
20260506142805 78 215 5.2 13.9 0.00 0.15 0.00 36 1003.1
20260506142604 79 219 5.2 13.9 0.00 0.15 0.00 35 1003.2
20260506142505 79 220 5.2 13.9 0.00 0.15 0.00 34 1003.0
20260506142403 79 213 5.2 13.9 0.00 0.15 0.00 35 1002.9
20260506142306 79 212 6.1 13.9 0.00 0.15 0.00 36 1003.0
20260506142203 79 213 6.1 20.0 0.00 0.15 0.00 36 1002.9
20260506142103 79 218 6.1 20.0 0.00 0.15 0.00 34 1003.1
20260506142004 79 220 7.0 20.0 0.00 0.15 0.00 34 1003.0
20260506141903 79 218 6.1 20.0 0.00 0.15 0.00 35 1003.0
20260506141804 79 221 6.1 20.0 0.00 0.15 0.00 35 1002.9
20260506141705 79 224 7.0 20.0 0.00 0.15 0.00 34 1002.9
20260506141603 79 226 6.1 20.0 0.00 0.15 0.00 34 1003.1
20260506141504 79 227 6.1 20.0 0.00 0.15 0.00 36 1003.1
20260506141404 79 233 5.2 20.0 0.00 0.15 0.00 37 1002.8
20260506141303 79 236 5.2 20.0 0.00 0.15 0.00 34 1003.0
20260506141203 79 237 5.2 20.0 0.00 0.15 0.00 35 1003.1
20260506141103 79 234 4.3 20.0 0.00 0.15 0.00 37 1003.1
20260506141003 79 229 4.3 13.0 0.00 0.15 0.00 36 1002.9
20260506140904 79 233 4.3 13.0 0.00 0.15 0.00 36 1003.0
20260506140819 78 230 4.3 13.0 0.00 0.15 0.00 35 1003.0
20260506140804 78 227 4.3 13.0 0.00 0.15 0.00 35 1003.1
20260506140519 78 217 3.5 13.0 0.00 0.15 0.00 36 1003.0
20260506140503 78 218 3.5 13.9 0.00 0.15 0.00 36 1002.9
20260506140404 78 221 4.3 13.9 0.00 0.15 0.00 35 1002.9
20260506140205 78 213 4.3 13.9 0.00 0.15 0.00 36 1002.9
20260506140104 78 216 4.3 13.9 0.00 0.15 0.00 36 1003.0
20260506140004 78 222 4.3 13.9 0.00 0.15 0.00 34 1002.9
20260506135903 78 219 4.3 13.9 0.00 0.15 0.00 34 1003.0
20260506135803 78 216 4.3 13.9 0.00 0.15 0.00 33 1003.0
20260506135704 78 216 4.3 13.9 0.00 0.15 0.00 37 1002.9
20260506135603 78 214 4.3 13.9 0.00 0.15 0.00 34 1002.9
20260506135503 78 216 4.3 13.9 0.00 0.15 0.00 34 1002.9
20260506135404 79 209 4.3 13.9 0.00 0.15 0.00 35 1002.9
20260506135306 79 207 4.3 13.0 0.00 0.15 0.00 35 1003.0
20260506135204 79 205 5.2 13.0 0.00 0.15 0.00 34 1003.0
20260506135119 79 203 5.2 13.9 0.00 0.15 0.00 35 1003.0
20260506135103 79 201 5.2 13.9 0.00 0.15 0.00 35 1002.9
20260506135005 78 202 5.2 13.9 0.00 0.15 0.00 35 1002.9
20260506134804 78 211 6.1 13.9 0.00 0.15 0.00 35 1003.0
20260506134703 79 211 6.1 13.9 0.00 0.15 0.00 35 1003.0
20260506134603 79 214 6.1 13.9 0.00 0.15 0.00 35 1003.0
20260506134504 79 211 7.0 13.9 0.00 0.15 0.00 34 1002.9
20260506134405 79 216 6.1 13.9 0.00 0.15 0.00 34 1002.9
20260506134305 79 220 6.1 13.9 0.00 0.15 0.00 33 1002.9
20260506134204 79 225 6.1 13.9 0.00 0.15 0.00 36 1003.0
20260506134103 79 230 6.1 13.9 0.00 0.15 0.00 33 1002.7
20260506134003 79 230 5.2 13.9 0.00 0.15 0.00 34 1002.8
20260506133903 79 226 5.2 12.2 0.00 0.15 0.00 36 1002.8
20260506133821 79 226 5.2 12.2 0.00 0.15 0.00 36 1002.8
20260506133803 79 226 5.2 12.2 0.00 0.15 0.00 36 1002.9
20260506133704 79 227 4.3 12.2 0.00 0.15 0.00 34 1002.9
20260506133503 78 227 4.3 11.3 0.00 0.15 0.00 35 1003.0
20260506133404 78 222 4.3 11.3 0.00 0.15 0.00 37 1002.9
20260506133303 78 225 4.3 11.3 0.00 0.15 0.00 36 1002.8
20260506133204 77 229 4.3 13.0 0.00 0.15 0.00 36 1003.0
20260506133119 77 228 4.3 13.0 0.00 0.15 0.00 36 1003.0
20260506133104 77 228 4.3 13.0 0.00 0.15 0.00 36 1002.9
20260506133004 77 230 4.3 13.9 0.00 0.15 0.00 36 1002.9
20260506132819 77 240 4.3 16.5 0.00 0.15 0.00 37 1002.9
20260506132803 77 240 4.3 16.5 0.00 0.15 0.00 37 1003.0
20260506132717 77 245 5.2 16.5 0.00 0.15 0.00 35 1003.1
20260506132704 77 245 5.2 16.5 0.00 0.15 0.00 35 1003.1
20260506132519 77 250 6.1 16.5 0.00 0.15 0.00 35 1002.9
20260506132403 77 253 6.1 16.5 0.00 0.15 0.00 35 1003.2
20260506132203 77 250 6.1 16.5 0.00 0.15 0.00 37 1003.2
20260506132104 77 247 6.1 16.5 0.00 0.15 0.00 36 1003.1
20260506132003 77 245 6.1 16.5 0.00 0.15 0.00 39 1003.0
20260506131918 77 245 5.2 16.5 0.00 0.15 0.00 39 1002.9
20260506131904 77 246 5.2 16.5 0.00 0.15 0.00 39 1002.9
20260506131604 77 213 4.3 13.9 0.00 0.15 0.00 48 1003.2
20260506131505 77 200 3.5 13.9 0.00 0.15 0.00 49 1002.9
20260506131403 76 188 2.6 13.9 0.00 0.15 0.00 45 1002.7
20260506131317 75 182 2.6 13.9 0.00 0.15 0.00 38 1002.7
20260506131303 75 175 2.6 13.9 0.00 0.15 0.00 38 1002.9
20260506131204 75 155 1.7 13.9 0.00 0.15 0.00 43 1003.1
20260506131003 74 148 1.7 7.0 0.00 0.15 0.00 58 1003.0
20260506130916 74 139 0.9 5.2 0.00 0.15 0.00 58 1003.0
20260506130903 74 138 0.9 5.2 0.00 0.15 0.00 60 1003.1
20260506130804 74 162 0.9 5.2 0.00 0.15 0.00 60 1003.0
20260506130604 73 164 0.9 7.8 0.00 0.15 0.00 58 1003.2
20260506130503 73 166 1.7 8.7 0.00 0.15 0.00 58 1003.3
20260506130403 73 98 1.7 8.7 0.00 0.15 0.00 59 1003.3
20260506130304 73 60 2.6 8.7 0.00 0.15 0.00 60 1003.2
20260506130204 73 40 2.6 8.7 0.00 0.15 0.00 63 1003.4
20260506130104 72 29 2.6 8.7 0.00 0.15 0.00 63 1003.2
20260506130003 72 24 3.5 8.7 0.00 0.15 0.00 63 1003.3
20260506125903 72 20 3.5 8.7 0.00 0.15 0.00 63 1003.3
20260506125805 72 20 3.5 8.7 0.00 0.15 0.00 62 1003.3
20260506125704 72 16 3.5 8.7 0.00 0.15 0.00 63 1003.3
20260506125504 72 10 3.5 12.2 0.00 0.15 0.00 63 1003.2
20260506125403 72 19 3.5 12.2 0.00 0.15 0.00 62 1003.2
20260506125306 72 28 3.5 12.2 0.00 0.15 0.00 63 1003.2
20260506125204 72 39 3.5 12.2 0.00 0.15 0.00 63 1003.4
20260506125103 72 43 3.5 12.2 0.00 0.15 0.00 62 1003.4
20260506125004 72 36 3.5 12.2 0.00 0.15 0.00 62 1003.6
20260506124903 72 27 3.5 12.2 0.00 0.15 0.00 61 1003.7
20260506124804 72 34 3.5 12.2 0.00 0.15 0.00 62 1003.3
20260506124704 72 51 3.5 12.2 0.00 0.15 0.00 61 1003.4
20260506124615 72 63 3.5 12.2 0.00 0.15 0.00 62 1003.4
20260506124603 72 64 3.5 12.2 0.00 0.15 0.00 62 1003.2
20260506124518 72 66 3.5 12.2 0.00 0.15 0.00 61 1003.6
20260506124503 72 64 3.5 12.2 0.00 0.15 0.00 61 1003.6
20260506124203 73 61 3.5 9.6 0.00 0.15 0.00 62 1003.4
20260506124103 73 63 3.5 9.6 0.00 0.15 0.00 60 1003.2
20260506124003 73 71 3.5 9.6 0.00 0.15 0.00 60 1003.3
20260506123903 73 74 3.5 9.6 0.00 0.15 0.00 59 1003.4
20260506123803 73 77 3.5 8.7 0.00 0.15 0.00 60 1003.3
20260506123704 73 74 3.5 8.7 0.00 0.15 0.00 58 1003.4
20260506123603 73 71 3.5 8.7 0.00 0.15 0.00 59 1003.4
20260506123503 73 66 3.5 8.7 0.00 0.15 0.00 58 1003.4
20260506123404 73 58 3.5 8.7 0.00 0.15 0.00 58 1003.3
20260506123305 74 50 3.5 7.0 0.00 0.15 0.00 59 1003.2
20260506123204 74 44 2.6 7.0 0.00 0.15 0.00 59 1003.3
20260506123103 74 46 2.6 7.0 0.00 0.15 0.00 57 1003.3
20260506123003 74 39 2.6 7.0 0.00 0.15 0.00 58 1003.3
20260506122904 74 39 2.6 7.0 0.00 0.15 0.00 59 1003.3
20260506122803 74 36 2.6 9.6 0.00 0.15 0.00 58 1003.2
20260506122703 74 40 2.6 9.6 0.00 0.15 0.00 58 1003.4
20260506122605 74 39 2.6 9.6 0.00 0.15 0.00 56 1003.2
20260506122503 74 42 2.6 9.6 0.00 0.15 0.00 58 1003.5
20260506122417 74 45 2.6 9.6 0.00 0.15 0.00 58 1003.4
20260506122403 74 45 2.6 9.6 0.00 0.15 0.00 58 1003.4
20260506122305 74 45 2.6 9.6 0.00 0.15 0.00 57 1003.3
20260506122104 74 49 3.5 9.6 0.00 0.15 0.00 57 1003.4
20260506122019 74 50 3.5 9.6 0.00 0.15 0.00 57 1003.3
20260506122004 74 51 3.5 9.6 0.00 0.15 0.00 55 1003.3
20260506121904 75 57 3.5 9.6 0.00 0.15 0.00 57 1003.4
20260506121816 75 57 3.5 9.6 0.00 0.15 0.00 57 1003.4
20260506121704 75 61 3.5 9.6 0.00 0.15 0.00 54 1003.1
20260506121504 75 58 3.5 7.8 0.00 0.15 0.00 53 1003.3
20260506121404 75 53 2.6 7.8 0.00 0.15 0.00 53 1003.2
20260506121304 75 51 2.6 7.8 0.00 0.15 0.00 55 1003.3
20260506121204 75 44 2.6 7.8 0.00 0.15 0.00 54 1003.1
20260506121103 75 34 2.6 7.8 0.00 0.15 0.00 53 1003.3
20260506121003 75 33 2.6 7.8 0.00 0.15 0.00 54 1003.2
20260506120903 75 30 2.6 7.8 0.00 0.15 0.00 54 1003.1
20260506120804 75 26 2.6 7.0 0.00 0.15 0.00 54 1003.3
20260506120717 75 27 2.6 7.8 0.00 0.15 0.00 54 1003.3
20260506120704 75 28 2.6 7.8 0.00 0.15 0.00 54 1003.3
20260506120603 75 32 3.5 7.8 0.00 0.15 0.00 55 1003.3
20260506120518 75 40 3.5 7.8 0.00 0.15 0.00 55 1003.3
20260506120404 75 48 3.5 7.8 0.00 0.15 0.00 56 1003.3
20260506120218 75 51 3.5 8.7 0.00 0.15 0.00 55 1003.4
20260506120203 75 51 3.5 8.7 0.00 0.15 0.00 56 1003.3
20260506120103 75 58 3.5 8.7 0.00 0.15 0.00 56 1003.3
20260506115904 75 67 4.3 8.7 0.00 0.15 0.00 56 1003.5
20260506115820 75 64 4.3 8.7 0.00 0.15 0.00 55 1003.5
20260506115803 75 66 4.3 8.7 0.00 0.15 0.00 55 1003.5
20260506115704 75 63 4.3 8.7 0.00 0.15 0.00 56 1003.3
20260506115520 74 46 3.5 8.7 0.00 0.15 0.00 56 1003.7
20260506115503 74 44 3.5 8.7 0.00 0.15 0.00 56 1003.7
20260506115404 74 36 3.5 8.7 0.00 0.15 0.00 56 1003.5
20260506115204 75 35 3.5 8.7 0.00 0.15 0.00 55 1003.6
20260506115103 75 31 3.5 8.7 0.00 0.15 0.00 55 1003.3
20260506115004 75 29 2.6 7.8 0.00 0.15 0.00 53 1003.6
20260506114904 75 24 2.6 7.8 0.00 0.15 0.00 54 1003.4
20260506114804 74 24 2.6 7.0 0.00 0.15 0.00 51 1003.5
20260506114704 74 28 2.6 7.0 0.00 0.15 0.00 51 1003.5
20260506114619 74 35 2.6 7.0 0.00 0.15 0.00 51 1003.6
20260506114604 74 37 2.6 7.0 0.00 0.15 0.00 51 1003.6
20260506114504 74 47 1.7 6.1 0.00 0.15 0.00 55 1003.5
20260506114303 74 49 1.7 6.1 0.00 0.15 0.00 58 1003.5
20260506114218 74 48 1.7 6.1 0.00 0.15 0.00 56 1003.8
20260506114203 74 49 1.7 6.1 0.00 0.15 0.00 56 1003.8
20260506114120 74 51 1.7 6.1 0.00 0.15 0.00 54 1003.8
20260506114103 74 52 1.7 6.1 0.00 0.15 0.00 54 1003.8
20260506114019 74 51 1.7 6.1 0.00 0.15 0.00 54 1003.6
20260506113704 74 75 1.7 6.1 0.00 0.15 0.00 56 1003.7
20260506113603 74 91 1.7 6.1 0.00 0.15 0.00 50 1003.8
20260506113503 74 129 1.7 6.1 0.00 0.15 0.00 51 1003.9
20260506113404 75 152 1.7 7.0 0.00 0.15 0.00 52 1003.8
20260506113304 75 171 1.7 8.7 0.00 0.15 0.00 47 1003.9
20260506113204 75 169 2.6 8.7 0.00 0.15 0.00 46 1004.0
20260506113103 75 170 2.6 8.7 0.00 0.15 0.00 43 1003.9
20260506113004 75 166 2.6 8.7 0.00 0.15 0.00 43 1004.0
20260506112919 75 160 2.6 8.7 0.00 0.15 0.00 42 1004.0
20260506112904 75 155 2.6 8.7 0.00 0.15 0.00 42 1004.1
20260506112804 75 141 2.6 8.7 0.00 0.15 0.00 47 1004.0
20260506112603 75 112 3.5 8.7 0.00 0.15 0.00 45 1004.1
20260506112503 75 97 3.5 8.7 0.00 0.15 0.00 47 1004.2
20260506112403 75 90 4.3 8.7 0.00 0.15 0.00 50 1004.0
20260506112306 75 85 4.3 8.7 0.00 0.15 0.00 44 1004.0
20260506112204 75 83 3.5 8.7 0.00 0.15 0.00 55 1004.1
20260506112103 75 84 3.5 8.7 0.00 0.15 0.00 54 1004.1
20260506112003 75 85 3.5 8.7 0.00 0.15 0.00 54 1004.2
20260506111903 75 87 3.5 8.7 0.00 0.15 0.00 52 1004.0
20260506111804 75 88 3.5 8.7 0.00 0.15 0.00 56 1004.1
20260506111703 75 90 2.6 7.8 0.00 0.15 0.00 54 1004.3
20260506111604 75 95 2.6 7.8 0.00 0.15 0.00 52 1004.1
20260506111504 75 105 1.7 7.8 0.00 0.15 0.00 52 1004.2
20260506111403 75 110 1.7 7.0 0.00 0.15 0.00 49 1004.1
20260506111305 75 105 1.7 7.0 0.00 0.15 0.00 48 1004.2
20260506111203 75 100 1.7 6.1 0.00 0.15 0.00 49 1004.1
20260506111103 75 96 1.7 6.1 0.00 0.15 0.00 51 1004.2
20260506111005 75 85 1.7 5.2 0.00 0.15 0.00 51 1004.2
20260506110904 75 83 1.7 5.2 0.00 0.15 0.00 52 1004.2
20260506110804 74 85 1.7 5.2 0.00 0.15 0.00 48 1004.4
20260506110705 74 92 1.7 5.2 0.00 0.15 0.00 49 1004.1
20260506110604 74 101 1.7 5.2 0.00 0.15 0.00 49 1004.2
20260506110518 74 105 1.7 5.2 0.00 0.15 0.00 51 1004.2
20260506110503 74 108 1.7 5.2 0.00 0.15 0.00 51 1004.4
20260506110403 74 119 1.7 5.2 0.00 0.15 0.00 50 1004.3
20260506110203 74 147 1.7 5.2 0.00 0.15 0.00 52 1004.3
20260506110103 74 157 1.7 5.2 0.00 0.15 0.00 54 1004.3
20260506110004 74 171 1.7 5.2 0.00 0.15 0.00 52 1004.3
20260506105904 73 182 1.7 6.1 0.00 0.15 0.00 52 1004.3
20260506105803 73 178 1.7 6.1 0.00 0.15 0.00 52 1004.5
20260506105703 73 164 1.7 7.0 0.00 0.15 0.00 51 1004.2
20260506105604 73 152 2.6 7.0 0.00 0.15 0.00 51 1004.4
20260506105520 73 144 2.6 7.0 0.00 0.15 0.00 48 1004.4
20260506105504 73 141 2.6 7.0 0.00 0.15 0.00 48 1004.4
20260506105403 73 131 2.6 7.0 0.00 0.15 0.00 52 1004.4
20260506105317 73 125 2.6 7.0 0.00 0.15 0.00 54 1004.4
20260506105219 73 115 2.6 7.0 0.00 0.15 0.00 49 1004.4
20260506105203 73 113 2.6 7.0 0.00 0.15 0.00 49 1004.4
20260506104904 73 107 3.5 8.7 0.00 0.15 0.00 52 1004.6
20260506104804 73 103 3.5 8.7 0.00 0.15 0.00 50 1004.4
20260506104716 73 107 3.5 8.7 0.00 0.15 0.00 52 1004.5
20260506104703 73 107 3.5 8.7 0.00 0.15 0.00 52 1004.5
20260506104619 73 106 3.5 8.7 0.00 0.15 0.00 52 1004.5
20260506104604 73 106 3.5 8.7 0.00 0.15 0.00 52 1004.5
20260506104517 73 106 3.5 8.7 0.00 0.15 0.00 52 1004.5
20260506104203 73 112 3.5 8.7 0.00 0.15 0.00 53 1004.6
20260506104104 73 107 3.5 8.7 0.00 0.15 0.00 53 1004.6
20260506104004 73 103 3.5 8.7 0.00 0.15 0.00 52 1004.6
20260506103904 73 103 3.5 8.7 0.00 0.15 0.00 51 1004.6
20260506103804 72 105 3.5 8.7 0.00 0.15 0.00 51 1004.5
20260506103703 72 104 2.6 7.8 0.00 0.15 0.00 57 1004.6
20260506103603 72 108 2.6 7.0 0.00 0.15 0.00 57 1004.7
20260506103504 72 110 2.6 8.7 0.00 0.15 0.00 55 1004.7
20260506103404 72 117 3.5 8.7 0.00 0.15 0.00 54 1004.7
20260506103321 72 115 3.5 8.7 0.00 0.15 0.00 54 1004.7
20260506103303 72 114 3.5 8.7 0.00 0.15 0.00 54 1004.7
20260506103204 72 117 3.5 8.7 0.00 0.15 0.00 56 1004.8
20260506103004 72 128 2.6 8.7 0.00 0.15 0.00 56 1004.9
20260506102919 72 125 3.5 8.7 0.00 0.15 0.00 56 1004.9
20260506102903 72 123 3.5 8.7 0.00 0.15 0.00 57 1004.8
20260506102804 72 117 3.5 8.7 0.00 0.15 0.00 55 1004.7
20260506102605 72 107 3.5 8.7 0.00 0.15 0.00 57 1004.6
20260506102503 72 104 3.5 8.7 0.00 0.15 0.00 56 1004.7
20260506102421 72 102 2.6 8.7 0.00 0.15 0.00 57 1004.7
20260506102403 72 99 2.6 8.7 0.00 0.15 0.00 57 1004.8
20260506102305 72 100 2.6 7.8 0.00 0.15 0.00 58 1004.7
20260506102217 72 99 2.6 7.8 0.00 0.15 0.00 58 1004.6
20260506102103 72 79 1.7 7.8 0.00 0.15 0.00 60 1004.7
20260506101903 72 67 1.7 6.1 0.00 0.15 0.00 59 1004.7
20260506101804 72 84 1.7 6.1 0.00 0.15 0.00 60 1004.8
20260506101703 71 113 0.9 5.2 0.00 0.15 0.00 61 1004.9
20260506101604 71 141 0.9 3.5 0.00 0.15 0.00 60 1004.9
20260506101505 71 153 0.9 5.2 0.00 0.15 0.00 62 1004.9
20260506101403 71 145 0.9 5.2 0.00 0.15 0.00 60 1004.9
20260506101303 71 136 1.7 6.1 0.00 0.15 0.00 61 1005.0
20260506101219 71 125 1.7 6.1 0.00 0.15 0.00 61 1004.8
20260506101203 71 126 1.7 6.1 0.00 0.15 0.00 58 1004.8
20260506101103 71 128 1.7 6.1 0.00 0.15 0.00 59 1004.8
20260506101016 71 128 1.7 6.1 0.00 0.15 0.00 59 1004.9
20260506100903 71 125 2.6 6.1 0.00 0.15 0.00 59 1005.0
20260506100818 71 120 2.6 7.0 0.00 0.15 0.00 61 1005.0
20260506100720 71 113 2.6 7.0 0.00 0.15 0.00 60 1005.0
20260506100703 71 111 2.6 7.8 0.00 0.15 0.00 60 1004.9
20260506100416 70 109 3.5 7.8 0.00 0.15 0.00 61 1005.1
20260506100404 70 109 3.5 7.8 0.00 0.15 0.00 61 1005.0
20260506100305 70 110 3.5 7.8 0.00 0.15 0.00 61 1004.9
20260506100120 70 113 3.5 7.8 0.00 0.15 0.00 60 1004.9
20260506100005 70 113 3.5 7.8 0.00 0.15 0.00 64 1005.0
20260506095819 70 117 2.6 7.8 0.00 0.15 0.00 61 1005.1
20260506095803 70 120 2.6 7.8 0.00 0.15 0.00 60 1005.0
20260506095705 70 128 2.6 7.8 0.00 0.15 0.00 60 1005.0
20260506095505 70 130 1.7 7.0 0.00 0.15 0.00 62 1005.1
20260506095404 70 130 1.7 7.0 0.00 0.15 0.00 61 1005.0
20260506095305 70 129 1.7 6.1 0.00 0.15 0.00 61 1005.0
20260506095204 70 131 1.7 6.1 0.00 0.15 0.00 59 1005.0
20260506095103 70 133 1.7 6.1 0.00 0.15 0.00 62 1005.3
20260506095004 70 131 1.7 6.1 0.00 0.15 0.00 63 1004.9
20260506094919 70 127 1.7 6.1 0.00 0.15 0.00 63 1004.9
20260506094904 70 125 1.7 6.1 0.00 0.15 0.00 63 1005.1
20260506094804 70 123 1.7 6.1 0.00 0.15 0.00 60 1005.3
20260506094603 70 120 1.7 7.0 0.00 0.15 0.00 61 1005.1
20260506094503 69 120 1.7 7.0 0.00 0.15 0.00 62 1005.1
20260506094404 69 119 2.6 7.0 0.00 0.15 0.00 64 1005.1
20260506094303 69 118 2.6 7.0 0.00 0.15 0.00 61 1005.2
20260506094205 69 111 2.6 7.0 0.00 0.15 0.00 61 1005.2
20260506094103 69 103 2.6 7.0 0.00 0.15 0.00 61 1005.3
20260506094003 69 108 2.6 7.0 0.00 0.15 0.00 59 1005.2
20260506093903 69 108 2.6 7.0 0.00 0.15 0.00 60 1005.2
20260506093804 70 103 2.6 7.0 0.00 0.15 0.00 60 1005.3
20260506093704 70 100 2.6 7.8 0.00 0.15 0.00 60 1005.2
20260506093603 70 86 3.5 8.7 0.00 0.15 0.00 61 1005.2
20260506093504 69 79 3.5 8.7 0.00 0.15 0.00 65 1005.2
20260506093403 69 77 3.5 8.7 0.00 0.15 0.00 64 1005.1
20260506093318 69 74 3.5 8.7 0.00 0.15 0.00 61 1005.1
20260506093304 69 75 3.5 8.7 0.00 0.15 0.00 61 1005.3
20260506093204 69 85 3.5 8.7 0.00 0.15 0.00 61 1005.2
20260506093003 69 94 3.5 8.7 0.00 0.15 0.00 64 1005.1
20260506092918 69 96 3.5 8.7 0.00 0.15 0.00 63 1005.1
20260506092904 69 97 3.5 8.7 0.00 0.15 0.00 63 1005.1
20260506092817 69 99 3.5 8.7 0.00 0.15 0.00 61 1005.2
20260506092803 69 100 3.5 8.7 0.00 0.15 0.00 61 1005.2
20260506092504 69 119 2.6 7.8 0.00 0.15 0.00 63 1005.2
20260506092403 69 115 2.6 7.8 0.00 0.15 0.00 64 1005.3
20260506092312 69 114 2.6 7.8 0.00 0.15 0.00 64 1005.4
20260506092204 69 117 2.6 7.8 0.00 0.15 0.00 64 1005.1
20260506092119 69 118 2.6 7.8 0.00 0.15 0.00 64 1005.1
20260506092104 69 118 2.6 7.8 0.00 0.15 0.00 64 1005.2
20260506092003 69 108 2.6 7.8 0.00 0.15 0.00 64 1005.1
20260506091803 69 105 2.6 7.0 0.00 0.15 0.00 67 1005.3
20260506091705 68 102 1.7 7.0 0.00 0.15 0.00 66 1005.2
20260506091605 68 95 2.6 7.0 0.00 0.15 0.00 64 1005.4
20260506091504 68 100 2.6 7.0 0.00 0.15 0.00 66 1005.2
20260506091304 68 114 2.6 8.7 0.00 0.15 0.00 68 1005.4
20260506091212 67 110 3.5 8.7 0.00 0.15 0.00 67 1005.4
20260506091203 67 108 3.5 8.7 0.00 0.15 0.00 67 1005.4
20260506091003 67 104 2.6 8.7 0.00 0.15 0.00 67 1005.3
20260506090904 67 102 2.6 8.7 0.00 0.15 0.00 66 1005.1
20260506090804 67 104 2.6 8.7 0.00 0.15 0.00 64 1005.4
20260506090703 67 104 3.5 8.7 0.00 0.15 0.00 67 1005.5
20260506090604 67 106 3.5 8.7 0.00 0.15 0.00 67 1005.5
20260506090504 67 104 3.5 8.7 0.00 0.15 0.00 67 1005.3
20260506090419 67 100 3.5 8.7 0.00 0.15 0.00 67 1005.3
20260506090404 67 99 3.5 8.7 0.00 0.15 0.00 67 1005.4
20260506090303 67 97 3.5 8.7 0.00 0.15 0.00 66 1005.2
20260506090105 67 97 2.6 7.8 0.00 0.15 0.00 63 1005.5
20260506090004 67 97 3.5 7.8 0.00 0.15 0.00 67 1005.8
20260506085921 67 100 3.5 8.7 0.00 0.15 0.00 66 1005.5
20260506085903 67 101 3.5 8.7 0.00 0.15 0.00 66 1005.5
20260506085819 67 102 3.5 8.7 0.00 0.15 0.00 66 1005.5
20260506085803 67 101 3.5 8.7 0.00 0.15 0.00 66 1005.5
20260506085503 67 96 4.3 8.7 0.00 0.15 0.00 68 1005.5
20260506085417 66 92 3.5 8.7 0.00 0.15 0.00 68 1005.6
20260506085403 66 91 3.5 8.7 0.00 0.15 0.00 68 1005.6
20260506085306 66 90 3.5 8.7 0.00 0.15 0.00 68 1005.5
20260506085104 66 95 3.5 8.7 0.00 0.15 0.00 65 1005.6
20260506085004 66 100 3.5 8.7 0.00 0.15 0.00 69 1005.4
20260506084904 66 99 3.5 8.7 0.00 0.15 0.00 69 1005.4
20260506084804 66 101 3.5 8.7 0.00 0.15 0.00 70 1005.4
20260506084705 65 106 2.6 8.7 0.00 0.15 0.00 69 1005.3
20260506084618 66 114 2.6 7.0 0.00 0.15 0.00 67 1005.5
20260506084605 66 117 2.6 7.0 0.00 0.15 0.00 67 1005.5
20260506084505 66 129 2.6 7.0 0.00 0.15 0.00 67 1005.5
20260506084318 66 133 2.6 7.0 0.00 0.15 0.00 71 1005.4
20260506084304 66 133 2.6 7.0 0.00 0.15 0.00 71 1005.4
20260506084205 65 131 2.6 7.0 0.00 0.15 0.00 71 1005.4
20260506084003 65 114 2.6 7.0 0.00 0.15 0.00 70 1005.6
20260506083908 65 111 3.5 7.0 0.00 0.15 0.00 71 1005.6
20260506083804 65 110 3.5 7.0 0.00 0.15 0.00 70 1005.5
20260506083703 65 109 3.5 7.0 0.00 0.15 0.00 70 1005.5
20260506083603 65 107 3.5 7.0 0.00 0.15 0.00 68 1005.5
20260506083505 65 102 3.5 7.0 0.00 0.15 0.00 68 1005.4
20260506083403 65 98 3.5 7.0 0.00 0.15 0.00 70 1005.5
20260506083304 65 98 3.5 7.8 0.00 0.15 0.00 70 1005.5
20260506083204 65 106 3.5 7.8 0.00 0.15 0.00 70 1005.5
20260506083103 65 113 3.5 7.8 0.00 0.15 0.00 69 1005.5
20260506083005 65 122 3.5 7.8 0.00 0.15 0.00 73 1005.5
20260506082904 65 124 3.5 7.8 0.00 0.15 0.00 71 1005.4
20260506082803 65 121 3.5 7.8 0.00 0.15 0.00 73 1005.6
20260506082720 64 121 3.5 7.8 0.00 0.15 0.00 74 1005.6
20260506082703 64 120 3.5 7.8 0.00 0.15 0.00 74 1005.6
20260506082604 64 117 3.5 7.8 0.00 0.15 0.00 73 1005.6
20260506082405 64 118 3.5 7.8 0.00 0.15 0.00 71 1005.5
20260506082318 64 122 3.5 7.8 0.00 0.15 0.00 71 1005.5
20260506082305 64 120 3.5 7.8 0.00 0.15 0.00 71 1005.5
20260506082216 64 118 3.5 7.8 0.00 0.15 0.00 71 1005.5
20260506082205 64 119 3.5 7.8 0.00 0.15 0.00 71 1005.6
20260506081904 64 116 2.6 7.0 0.00 0.15 0.00 73 1005.5
20260506081804 64 119 2.6 9.6 0.00 0.15 0.00 72 1005.8
20260506081705 64 118 2.6 9.6 0.00 0.15 0.00 70 1005.5
20260506081604 64 116 3.5 9.6 0.00 0.15 0.00 70 1005.9
20260506081519 64 114 3.5 9.6 0.00 0.15 0.00 72 1005.9
20260506081503 64 114 3.5 9.6 0.00 0.15 0.00 72 1005.8
20260506081404 64 109 3.5 9.6 0.00 0.15 0.00 73 1005.8
20260506081203 63 97 4.3 9.6 0.00 0.15 0.00 73 1005.8
20260506081103 63 94 4.3 9.6 0.00 0.15 0.00 74 1005.6
20260506081003 63 92 4.3 9.6 0.00 0.15 0.00 76 1005.6
20260506080903 63 92 5.2 9.6 0.00 0.15 0.00 73 1005.9
20260506080804 63 89 5.2 9.6 0.00 0.15 0.00 76 1005.8
20260506080720 63 88 5.2 9.6 0.00 0.15 0.00 75 1005.8
20260506080703 63 87 5.2 9.6 0.00 0.15 0.00 75 1005.8
20260506080618 63 86 4.3 9.6 0.00 0.15 0.00 75 1005.8
20260506080603 63 85 4.3 9.6 0.00 0.15 0.00 74 1005.6
20260506080303 63 95 4.3 9.6 0.00 0.15 0.00 74 1005.6
20260506080204 62 97 3.5 9.6 0.00 0.15 0.00 74 1005.8
20260506080103 62 102 3.5 9.6 0.00 0.15 0.00 74 1005.9
20260506073503 60 72 4.3 9.6 0.00 0.15 0.00 83 1006.0
20260506073320 60 74 4.3 9.6 0.00 0.15 0.00 85 1006.0
20260506073304 59 74 4.3 9.6 0.00 0.15 0.00 83 1006.0
20260506073203 59 74 4.3 9.6 0.00 0.15 0.00 83 1005.9
20260506073003 59 73 4.3 9.6 0.00 0.15 0.00 82 1006.1
20260506072903 59 67 4.3 9.6 0.00 0.15 0.00 82 1006.1
20260506072804 59 66 4.3 9.6 0.00 0.15 0.00 83 1006.3
20260506072704 59 65 4.3 9.6 0.00 0.15 0.00 83 1006.1
20260506072603 59 67 4.3 9.6 0.00 0.15 0.00 83 1006.1
20260506072503 59 65 4.3 9.6 0.00 0.15 0.00 83 1006.0
20260506072403 59 61 4.3 9.6 0.00 0.15 0.00 84 1005.9
20260506072306 58 60 4.3 8.7 0.00 0.15 0.00 84 1006.1
20260506072203 58 66 3.5 8.7 0.00 0.15 0.00 84 1006.1
20260506072103 58 70 3.5 9.6 0.00 0.15 0.00 83 1006.2
20260506072004 58 72 4.3 9.6 0.00 0.15 0.00 83 1006.1
20260506071904 58 79 4.3 9.6 0.00 0.15 0.00 83 1006.2
20260506071818 58 79 4.3 9.6 0.00 0.15 0.00 83 1006.2
20260506071805 58 79 4.3 9.6 0.00 0.15 0.00 83 1006.2
20260506071704 58 83 4.3 9.6 0.00 0.15 0.00 84 1006.2
20260506071504 58 84 4.3 9.6 0.00 0.15 0.00 85 1006.4
20260506071403 58 87 4.3 9.6 0.00 0.15 0.00 85 1006.3
20260506071304 58 86 4.3 9.6 0.00 0.15 0.00 85 1006.4
20260506071203 58 82 5.2 9.6 0.00 0.15 0.00 85 1006.4
20260506071103 58 80 5.2 9.6 0.00 0.15 0.00 85 1006.5
20260506071004 58 79 4.3 8.7 0.00 0.15 0.00 85 1006.3
20260506070904 57 77 4.3 8.7 0.00 0.15 0.00 86 1006.2
20260506070805 57 76 3.5 8.7 0.00 0.15 0.00 86 1006.5
20260506070704 57 74 3.5 8.7 0.00 0.15 0.00 86 1006.3
20260506070503 57 84 3.5 9.6 0.00 0.15 0.00 85 1006.2
20260506070404 57 86 3.5 9.6 0.00 0.15 0.00 86 1006.3
20260506070304 57 87 3.5 9.6 0.00 0.15 0.00 86 1006.5
20260506070204 57 85 3.5 9.6 0.00 0.15 0.00 87 1006.4
20260506070105 57 84 3.5 9.6 0.00 0.15 0.00 86 1006.5
20260506062503 55 83 5.2 13.0 0.00 0.15 0.00 89 1006.4
20260506062403 55 86 4.3 13.0 0.00 0.15 0.00 89 1006.5
20260506062305 55 86 4.3 13.0 0.00 0.15 0.00 89 1006.5
20260506062203 55 85 4.3 13.0 0.00 0.15 0.00 88 1006.5
20260506062003 55 89 4.3 8.7 0.00 0.15 0.00 89 1006.5
20260506061904 55 87 4.3 8.7 0.00 0.15 0.00 89 1006.4
20260506061808 55 89 4.3 8.7 0.00 0.15 0.00 89 1006.5
20260506061705 55 90 3.5 8.7 0.00 0.15 0.00 89 1006.7
20260506061619 55 91 3.5 8.7 0.00 0.15 0.00 90 1006.7
20260506061604 55 90 3.5 8.7 0.00 0.15 0.00 90 1006.5
20260506061504 55 89 3.5 8.7 0.00 0.15 0.00 91 1006.5
20260506061421 55 88 3.5 8.7 0.00 0.15 0.00 91 1006.5
20260506061303 55 90 3.5 8.7 0.00 0.15 0.00 91 1006.5
20260506061218 55 89 3.5 8.7 0.00 0.15 0.00 91 1006.6
20260506061105 54 94 3.5 8.7 0.00 0.15 0.00 91 1006.4
20260506060904 54 96 3.5 8.7 0.00 0.15 0.00 91 1006.6
20260506060805 54 94 3.5 8.7 0.00 0.15 0.00 91 1006.6
20260506060703 54 95 4.3 8.7 0.00 0.15 0.00 90 1006.5
20260506060604 54 96 4.3 8.7 0.00 0.15 0.00 90 1006.6
20260506060504 54 100 4.3 8.7 0.00 0.15 0.00 90 1006.6
20260506060404 54 101 4.3 8.7 0.00 0.15 0.00 91 1006.7
20260506060304 54 97 4.3 8.7 0.00 0.15 0.00 90 1006.5
20260506060219 54 97 4.3 8.7 0.00 0.15 0.00 92 1006.5
20260506060204 54 98 4.3 8.7 0.00 0.15 0.00 92 1006.5
20260506051416 52 91 4.3 9.6 0.00 0.15 0.00 99 1006.6
20260506051404 52 91 4.3 9.6 0.00 0.15 0.00 99 1006.6
20260506051304 52 90 3.5 8.7 0.00 0.15 0.00 99 1006.8
20260506051103 52 89 3.5 8.7 0.00 0.15 0.00 99 1006.6
20260506051005 51 91 4.3 8.7 0.00 0.15 0.00 99 1006.6
20260506050904 51 92 4.3 8.7 0.00 0.15 0.00 99 1006.8
20260506050803 51 92 3.5 8.7 0.00 0.15 0.00 99 1006.6
20260506050718 51 93 3.5 8.7 0.00 0.15 0.00 99 1006.6
20260506050706 51 94 3.5 8.7 0.00 0.15 0.00 99 1006.6
20260506050603 51 97 3.5 7.8 0.00 0.15 0.00 99 1006.5
20260506050404 51 103 2.6 7.8 0.00 0.15 0.00 99 1006.8
20260506050304 51 105 2.6 7.8 0.00 0.15 0.00 99 1006.8
20260506050203 51 103 2.6 7.8 0.00 0.15 0.00 99 1006.8
20260506050103 51 107 2.6 7.8 0.00 0.15 0.00 99 1006.8
20260506045104 50 97 2.6 7.0 0.00 0.15 0.00 99 1006.6
20260506044805 50 89 1.7 7.0 0.00 0.15 0.00 99 1006.7
20260506044705 50 84 1.7 5.2 0.00 0.15 0.00 99 1006.6
20260506044603 50 85 1.7 5.2 0.00 0.15 0.00 99 1006.5
20260506044505 50 82 1.7 5.2 0.00 0.15 0.00 99 1006.6
20260506044403 49 78 0.9 5.2 0.00 0.15 0.00 99 1006.5
20260506044316 49 75 0.9 5.2 0.00 0.15 0.00 99 1006.6
20260506044305 49 74 0.9 5.2 0.00 0.15 0.00 99 1006.6
20260506044219 49 71 0.9 5.2 0.00 0.15 0.00 99 1006.6
20260506044204 49 72 0.9 5.2 0.00 0.15 0.00 99 1006.6
20260506043903 49 85 0.9 2.6 0.00 0.15 0.00 99 1006.5
20260506043817 49 82 0.9 2.6 0.00 0.15 0.00 99 1006.5
20260506043806 49 84 0.9 2.6 0.00 0.15 0.00 99 1006.6
20260506043703 49 91 0.9 2.6 0.00 0.15 0.00 99 1006.7
20260506043505 49 80 0.9 1.7 0.00 0.15 0.00 99 1006.7
20260506043404 48 76 0.9 2.6 0.00 0.15 0.00 99 1006.7
20260506043318 48 75 0.9 2.6 0.00 0.15 0.00 99 1006.5
20260506043305 48 74 0.9 2.6 0.00 0.15 0.00 99 1006.5
20260506043203 48 71 0.9 2.6 0.00 0.15 0.00 99 1006.5
20260506043003 48 65 0.9 2.6 0.00 0.15 0.00 99 1006.6
20260506042903 48 59 0.9 2.6 0.00 0.15 0.00 99 1006.7
20260506042804 48 58 0.9 2.6 0.00 0.15 0.00 99 1006.7
20260506042703 48 54 0.9 2.6 0.00 0.15 0.00 99 1006.9
20260506042603 47 60 0.0 2.6 0.00 0.15 0.00 99 1006.7
20260506042503 47 65 0.0 2.6 0.00 0.15 0.00 99 1006.9
20260506042404 47 67 0.0 2.6 0.00 0.15 0.00 99 1006.9
20260506042316 47 68 0.0 2.6 0.00 0.15 0.00 99 1006.9
20260506042305 47 69 0.0 2.6 0.00 0.15 0.00 99 1006.9
20260506042204 47 76 0.0 1.7 0.00 0.15 0.00 99 1007.1
20260506042003 47 0 0.0 0.9 0.00 0.15 0.00 99 1007.2
20260506041903 47 0 0.0 0.9 0.00 0.15 0.00 99 1007.2
20260506041804 47 73 0.0 0.9 0.00 0.15 0.00 99 1007.4
20260506041705 47 68 0.0 0.9 0.00 0.15 0.00 99 1007.1
20260506041603 47 67 0.0 0.9 0.00 0.15 0.00 99 1007.2
20260506041503 47 64 0.0 0.9 0.00 0.15 0.00 99 1007.1
20260506041419 46 62 0.0 1.7 0.00 0.15 0.00 99 1007.1
20260506041403 46 61 0.0 1.7 0.00 0.15 0.00 99 1007.1
20260506041304 46 62 0.0 1.7 0.00 0.15 0.00 99 1007.3
20260506041104 46 67 0.0 1.7 0.00 0.15 0.00 99 1007.3
20260506041003 46 67 0.0 1.7 0.00 0.15 0.00 99 1007.1
20260506040915 46 67 0.0 1.7 0.00 0.15 0.00 99 1007.2
20260506040903 46 68 0.0 1.7 0.00 0.15 0.00 99 1007.2
20260506040718 46 78 0.0 1.7 0.00 0.15 0.00 99 1007.2
20260506040705 46 79 0.0 1.7 0.00 0.15 0.00 99 1007.2
20260506040603 46 84 0.0 1.7 0.00 0.15 0.00 99 1007.1
20260506040404 46 98 0.0 1.7 0.00 0.15 0.00 99 1007.2
20260506040320 46 106 0.0 1.7 0.00 0.15 0.00 99 1007.2
20260506040303 46 111 0.0 1.7 0.00 0.15 0.00 99 1006.9
20260506040203 46 113 0.0 0.9 0.00 0.15 0.00 99 1007.2
20260506040004 45 99 0.0 0.9 0.00 0.15 0.00 99 1007.1
20260506035903 45 94 0.0 0.9 0.00 0.15 0.00 99 1007.1
20260506035803 45 93 0.0 0.9 0.00 0.15 0.00 99 1006.9
20260506035716 45 91 0.0 0.9 0.00 0.15 0.00 99 1007.1
20260506035704 45 90 0.0 0.9 0.00 0.15 0.00 99 1007.1
20260506035604 45 85 0.0 0.9 0.00 0.15 0.00 99 1007.2